Time,TemperatureF,DewpointF,PressureIn,WindDirection,WindDirectionDegrees,WindSpeedMPH,WindSpeedGustMPH,Humidity,HourlyPrecipIn,Conditions,Clouds,dailyrainin,SolarRadiationWatts/m^2,SoftwareType,DateUTC
2013-02-14 00:00:00,33.5,29.2,29.64,SW,229,3.0,6.0,84,0.00,,,0.26,0.00,VWS V14.01,2013-02-14 05:00:00,
2013-02-14 00:01:00,33.5,29.2,29.64,West,263,13.0,13.0,84,0.00,,,0.00,0.00,VWS V14.01,2013-02-14 05:01:00,
2013-02-14 00:02:00,33.5,29.2,29.63,WSW,248,5.0,8.0,84,0.00,,,0.26,0.00,VWS V14.01,2013-02-14 05:02:00,
2013-02-14 00:03:00,33.5,29.2,29.64,WSW,258,8.0,13.0,84,0.00,,,0.00,0.00,VWS V14.01,2013-02-14 05:03:00,
2013-02-14 00:04:00,33.5,29.2,29.64,WSW,257,6.0,10.0,84,0.00,,,0.00,0.00,VWS V14.01,2013-02-14 05:04:00,
2013-02-14 00:05:00,33.5,29.2,29.64,SSW,206,1.0,6.0,84,0.00,,,0.00,0.00,VWS V14.01,2013-02-14 05:05:00,
2013-02-14 00:06:00,33.5,29.2,29.64,WSW,241,8.0,8.0,84,0.00,,,0.00,0.00,VWS V14.01,2013-02-14 05:06:00,
2013-02-14 00:07:00,33.5,29.2,29.64,West,268,8.0,12.0,84,0.00,,,0.00,0.00,VWS V14.01,2013-02-14 05:07:00,
2013-02-14 00:08:00,33.5,29.2,29.64,West,264,7.0,11.0,84,0.00,,,0.00,0.00,VWS V14.01,2013-02-14 05:08:00,
2013-02-14 00:09:00,33.5,29.2,29.64,WSW,241,1.0,7.0,84,0.00,,,0.00,0.00,VWS V14.01,2013-02-14 05:09:00,
2013-02-14 00:10:00,33.5,29.2,29.64,SSW,206,1.0,6.0,84,0.00,,,0.00,0.00,VWS V14.01,2013-02-14 05:10:00,
2013-02-14 00:11:00,33.5,29.2,29.64,West,270,11.0,13.0,84,0.00,,,0.00,0.00,VWS V14.01,2013-02-14 05:11:00,
2013-02-14 00:12:00,33.5,29.2,29.64,WSW,248,2.0,11.0,84,0.00,,,0.00,0.00,VWS V14.01,2013-02-14 05:12:00,
2013-02-14 00:13:00,33.5,29.2,29.64,West,280,7.0,7.0,84,0.00,,,0.00,0.00,VWS V14.01,2013-02-14 05:13:00,
2013-02-14 00:14:00,33.5,29.2,29.64,WSW,247,4.0,7.0,84,0.00,,,0.00,0.00,VWS V14.01,2013-02-14 05:14:00,
2013-02-14 00:15:00,33.5,29.2,29.64,WSW,239,10.0,11.0,84,0.00,,,0.00,0.00,VWS V14.01,2013-02-14 05:15:00,
2013-02-14 00:16:00,33.5,29.2,29.63,WSW,253,3.0,6.0,84,0.00,,,0.00,0.00,VWS V14.01,2013-02-14 05:16:00,
2013-02-14 00:17:00,33.5,29.2,29.63,WSW,248,15.0,19.0,84,0.00,,,0.00,0.00,VWS V14.01,2013-02-14 05:17:00,
2013-02-14 00:18:00,33.4,29.1,29.63,WSW,244,2.0,17.0,84,0.00,,,0.00,0.00,VWS V14.01,2013-02-14 05:18:00,
2013-02-14 00:19:00,33.4,29.1,29.63,WSW,239,2.0,3.0,84,0.00,,,0.00,0.00,VWS V14.01,2013-02-14 05:19:00,
2013-02-14 00:20:00,33.5,29.2,29.63,West,270,6.0,12.0,84,0.00,,,0.00,0.00,VWS V14.01,2013-02-14 05:20:00,
2013-02-14 00:21:00,33.4,29.1,29.63,WSW,246,3.0,8.0,84,0.00,,,0.00,0.00,VWS V14.01,2013-02-14 05:21:00,
2013-02-14 00:22:00,33.4,29.1,29.63,West,263,4.0,10.0,84,0.00,,,0.00,0.00,VWS V14.01,2013-02-14 05:22:00,
2013-02-14 00:23:00,33.4,29.1,29.63,West,261,8.0,8.0,84,0.00,,,0.00,0.00,VWS V14.01,2013-02-14 05:23:00,
2013-02-14 00:24:00,33.4,29.1,29.63,SSW,210,5.0,8.0,84,0.00,,,0.00,0.00,VWS V14.01,2013-02-14 05:24:00,
2013-02-14 00:25:00,33.4,29.1,29.63,WSW,257,1.0,5.0,84,0.00,,,0.00,0.00,VWS V14.01,2013-02-14 05:25:00,
2013-02-14 00:26:00,33.4,29.1,29.63,WSW,246,3.0,8.0,84,0.00,,,0.00,0.00,VWS V14.01,2013-02-14 05:26:00,
2013-02-14 00:27:00,33.4,29.1,29.63,SSW,195,2.0,7.0,84,0.00,,,0.00,0.00,VWS V14.01,2013-02-14 05:27:00,
2013-02-14 00:28:00,33.4,28.8,29.63,WSW,253,6.0,6.0,83,0.00,,,0.00,0.00,VWS V14.01,2013-02-14 05:28:00,
2013-02-14 00:29:00,33.4,28.8,29.63,WSW,258,8.0,10.0,83,0.00,,,0.00,0.00,VWS V14.01,2013-02-14 05:29:00,
2013-02-14 00:30:00,33.4,28.8,29.64,West,271,6.0,10.0,83,0.00,,,0.00,0.00,VWS V14.01,2013-02-14 05:30:00,
2013-02-14 00:31:00,33.4,29.1,29.63,WSW,251,4.0,6.0,84,0.00,,,0.00,0.00,VWS V14.01,2013-02-14 05:31:00,
2013-02-14 00:32:00,33.4,28.8,29.64,West,261,11.0,11.0,83,0.00,,,0.00,0.00,VWS V14.01,2013-02-14 05:32:00,
2013-02-14 00:33:00,33.4,28.8,29.64,WSW,256,1.0,16.0,83,0.00,,,0.00,0.00,VWS V14.01,2013-02-14 05:33:00,
2013-02-14 00:34:00,33.4,28.8,29.64,WSW,244,8.0,10.0,83,0.00,,,0.00,0.00,VWS V14.01,2013-02-14 05:34:00,
2013-02-14 00:35:00,33.4,28.8,29.64,SW,217,2.0,13.0,83,0.00,,,0.00,0.00,VWS V14.01,2013-02-14 05:35:00,
2013-02-14 00:36:00,33.4,28.8,29.64,SW,224,6.0,8.0,83,0.00,,,0.00,0.00,VWS V14.01,2013-02-14 05:36:00,
2013-02-14 00:37:00,33.4,28.8,29.64,WNW,285,6.0,8.0,83,0.00,,,0.00,0.00,VWS V14.01,2013-02-14 05:37:00,
2013-02-14 00:38:00,33.4,28.8,29.64,South,178,7.0,8.0,83,0.00,,,0.00,0.00,VWS V14.01,2013-02-14 05:38:00,
2013-02-14 00:39:00,33.4,28.8,29.64,SSW,192,5.0,8.0,83,0.00,,,0.00,0.00,VWS V14.01,2013-02-14 05:39:00,
2013-02-14 00:40:00,33.4,28.8,29.64,SW,217,2.0,7.0,83,0.00,,,0.00,0.00,VWS V14.01,2013-02-14 05:40:00,
2013-02-14 00:41:00,33.4,28.8,29.64,West,264,4.0,8.0,83,0.00,,,0.00,0.00,VWS V14.01,2013-02-14 05:41:00,
2013-02-14 00:42:00,33.4,28.8,29.64,West,264,8.0,10.0,83,0.00,,,0.00,0.00,VWS V14.01,2013-02-14 05:42:00,
2013-02-14 00:43:00,33.4,28.8,29.64,SW,227,6.0,11.0,83,0.00,,,0.00,0.00,VWS V14.01,2013-02-14 05:43:00,
2013-02-14 00:44:00,33.4,28.8,29.64,West,267,2.0,11.0,83,0.00,,,0.00,0.00,VWS V14.01,2013-02-14 05:44:00,
2013-02-14 00:45:00,33.4,28.5,29.65,West,263,7.0,7.0,82,0.00,,,0.00,0.00,VWS V14.01,2013-02-14 05:45:00,
2013-02-14 00:46:00,33.4,28.8,29.64,West,265,2.0,6.0,83,0.00,,,0.00,0.00,VWS V14.01,2013-02-14 05:46:00,
2013-02-14 00:47:00,33.4,28.5,29.65,WSW,246,3.0,12.0,82,0.00,,,0.00,0.00,VWS V14.01,2013-02-14 05:47:00,
2013-02-14 00:48:00,33.4,28.5,29.65,SSW,195,1.0,7.0,82,0.00,,,0.00,0.00,VWS V14.01,2013-02-14 05:48:00,
2013-02-14 00:49:00,33.4,28.5,29.65,SW,236,2.0,2.0,82,0.00,,,0.00,0.00,VWS V14.01,2013-02-14 05:49:00,
2013-02-14 00:50:00,33.4,28.5,29.65,North,353,0.0,3.0,82,0.00,,,0.00,0.00,VWS V14.01,2013-02-14 05:50:00,
2013-02-14 00:51:00,33.4,28.5,29.65,NW,305,1.0,7.0,82,0.00,,,0.00,0.00,VWS V14.01,2013-02-14 05:51:00,
2013-02-14 00:52:00,33.4,28.5,29.65,WSW,246,3.0,12.0,82,0.00,,,0.00,0.00,VWS V14.01,2013-02-14 05:52:00,
2013-02-14 00:53:00,33.4,28.5,29.65,WSW,258,5.0,11.0,82,0.00,,,0.00,0.00,VWS V14.01,2013-02-14 05:53:00,
2013-02-14 00:54:00,33.4,28.5,29.65,WSW,254,2.0,8.0,82,0.00,,,0.00,0.00,VWS V14.01,2013-02-14 05:54:00,
2013-02-14 00:55:00,33.4,28.5,29.65,WSW,254,0.0,3.0,82,0.00,,,0.00,0.00,VWS V14.01,2013-02-14 05:55:00,
2013-02-14 00:56:00,33.4,28.5,29.65,WSW,258,0.0,0.0,82,0.00,,,0.00,0.00,VWS V14.01,2013-02-14 05:56:00,
2013-02-14 00:57:00,33.4,28.5,29.65,WSW,257,11.0,11.0,82,0.00,,,0.00,0.00,VWS V14.01,2013-02-14 05:57:00,
2013-02-14 00:58:00,33.4,28.5,29.65,WSW,251,0.0,0.0,82,0.00,,,0.00,0.00,VWS V14.01,2013-02-14 05:58:00,
2013-02-14 00:59:00,33.4,28.5,29.65,SW,229,0.0,0.0,82,0.00,,,0.00,0.00,VWS V14.01,2013-02-14 05:59:00,
2013-02-14 01:00:00,33.4,28.5,29.65,WSW,240,0.0,0.0,82,0.00,,,0.00,0.00,VWS V14.01,2013-02-14 06:00:00,
2013-02-14 01:01:00,33.4,28.5,29.65,WSW,244,0.0,0.0,82,0.00,,,0.00,0.00,VWS V14.01,2013-02-14 06:01:00,
2013-02-14 01:02:00,33.4,28.5,29.65,WNW,302,0.0,0.0,82,0.00,,,0.00,0.00,VWS V14.01,2013-02-14 06:02:00,
2013-02-14 01:03:00,33.4,28.5,29.65,WSW,251,0.0,0.0,82,0.00,,,0.00,0.00,VWS V14.01,2013-02-14 06:03:00,
2013-02-14 01:04:00,33.4,28.5,29.65,WSW,257,0.0,0.0,82,0.00,,,0.00,0.00,VWS V14.01,2013-02-14 06:04:00,
2013-02-14 01:05:00,33.4,28.2,29.65,SSW,203,0.0,0.0,81,0.00,,,0.00,0.00,VWS V14.01,2013-02-14 06:05:00,
2013-02-14 01:06:00,33.4,28.2,29.65,WNW,302,0.0,0.0,81,0.00,,,0.00,0.00,VWS V14.01,2013-02-14 06:06:00,
2013-02-14 01:07:00,33.4,28.2,29.65,South,188,0.0,0.0,81,0.00,,,0.00,0.00,VWS V14.01,2013-02-14 06:07:00,
2013-02-14 01:08:00,33.4,28.5,29.65,South,169,0.0,0.0,82,0.00,,,0.00,0.00,VWS V14.01,2013-02-14 06:08:00,
2013-02-14 01:09:00,33.4,28.2,29.65,WSW,240,0.0,0.0,81,0.00,,,0.00,0.00,VWS V14.01,2013-02-14 06:09:00,
2013-02-14 01:10:00,33.4,28.2,29.65,SSW,198,0.0,0.0,81,0.00,,,0.00,0.00,VWS V14.01,2013-02-14 06:10:00,
2013-02-14 01:11:00,33.2,28.0,29.65,West,267,0.0,0.0,81,0.00,,,0.00,0.00,VWS V14.01,2013-02-14 06:11:00,
2013-02-14 01:12:00,33.2,28.0,29.65,West,268,0.0,0.0,81,0.00,,,0.00,0.00,VWS V14.01,2013-02-14 06:12:00,
2013-02-14 01:13:00,33.4,28.2,29.65,South,188,0.0,0.0,81,0.00,,,0.00,0.00,VWS V14.01,2013-02-14 06:13:00,
2013-02-14 01:14:00,33.2,28.0,29.65,SSW,192,0.0,0.0,81,0.00,,,0.00,0.00,VWS V14.01,2013-02-14 06:14:00,
2013-02-14 01:15:00,33.2,28.0,29.66,SW,217,0.0,0.0,81,0.00,,,0.00,0.00,VWS V14.01,2013-02-14 06:15:00,
2013-02-14 01:16:00,33.4,28.2,29.66,WSW,241,0.0,0.0,81,0.00,,,0.00,0.00,VWS V14.01,2013-02-14 06:16:00,
2013-02-14 01:17:00,33.2,28.0,29.66,South,174,0.0,0.0,81,0.00,,,0.00,0.00,VWS V14.01,2013-02-14 06:17:00,
2013-02-14 01:18:00,33.2,28.0,29.66,South,172,0.0,0.0,81,0.00,,,0.00,0.00,VWS V14.01,2013-02-14 06:18:00,
2013-02-14 01:19:00,33.2,28.0,29.65,SSW,192,0.0,0.0,81,0.00,,,0.00,0.00,VWS V14.01,2013-02-14 06:19:00,
2013-02-14 01:20:00,33.4,28.2,29.66,South,169,0.0,0.0,81,0.00,,,0.00,0.00,VWS V14.01,2013-02-14 06:20:00,
2013-02-14 01:21:00,33.4,28.2,29.66,SSW,193,0.0,0.0,81,0.00,,,0.00,0.00,VWS V14.01,2013-02-14 06:21:00,
2013-02-14 01:22:00,33.2,28.0,29.66,South,172,0.0,0.0,81,0.00,,,0.00,0.00,VWS V14.01,2013-02-14 06:22:00,
2013-02-14 01:23:00,33.4,28.2,29.66,South,176,0.0,0.0,81,0.00,,,0.00,0.00,VWS V14.01,2013-02-14 06:23:00,
2013-02-14 01:24:00,33.4,28.2,29.66,South,182,0.0,0.0,81,0.00,,,0.00,0.00,VWS V14.01,2013-02-14 06:24:00,
2013-02-14 01:25:00,33.2,27.7,29.66,SW,236,0.0,0.0,80,0.00,,,0.00,0.00,VWS V14.01,2013-02-14 06:25:00,
2013-02-14 01:26:00,33.2,27.7,29.66,West,271,0.0,0.0,80,0.00,,,0.00,0.00,VWS V14.01,2013-02-14 06:26:00,
2013-02-14 01:27:00,33.2,27.7,29.66,SW,233,0.0,0.0,80,0.00,,,0.00,0.00,VWS V14.01,2013-02-14 06:27:00,
2013-02-14 01:28:00,33.2,27.7,29.66,SW,233,0.0,0.0,80,0.00,,,0.00,0.00,VWS V14.01,2013-02-14 06:28:00,
2013-02-14 01:29:00,33.2,27.7,29.66,SSW,206,0.0,0.0,80,0.00,,,0.00,0.00,VWS V14.01,2013-02-14 06:29:00,
2013-02-14 01:30:00,33.2,27.7,29.67,SE,145,0.0,0.0,80,0.00,,,0.00,0.00,VWS V14.01,2013-02-14 06:30:00,
2013-02-14 01:31:00,33.2,27.7,29.67,WSW,247,0.0,0.0,80,0.00,,,0.00,0.00,VWS V14.01,2013-02-14 06:31:00,
2013-02-14 01:32:00,33.2,27.7,29.67,WSW,247,0.0,0.0,80,0.00,,,0.00,0.00,VWS V14.01,2013-02-14 06:32:00,
2013-02-14 01:33:00,33.2,27.7,29.67,WSW,251,0.0,0.0,80,0.00,,,0.00,0.00,VWS V14.01,2013-02-14 06:33:00,
2013-02-14 01:34:00,33.2,27.4,29.67,SW,215,0.0,0.0,79,0.00,,,0.00,0.00,VWS V14.01,2013-02-14 06:34:00,
2013-02-14 01:35:00,33.2,27.7,29.67,SE,145,0.0,0.0,80,0.00,,,0.00,0.00,VWS V14.01,2013-02-14 06:35:00,
2013-02-14 01:36:00,33.2,27.4,29.67,West,260,0.0,0.0,79,0.00,,,0.00,0.00,VWS V14.01,2013-02-14 06:36:00,
2013-02-14 01:37:00,33.2,27.4,29.67,West,260,0.0,0.0,79,0.00,,,0.00,0.00,VWS V14.01,2013-02-14 06:37:00,
2013-02-14 01:38:00,33.2,27.4,29.67,WSW,258,0.0,0.0,79,0.00,,,0.00,0.00,VWS V14.01,2013-02-14 06:38:00,
2013-02-14 01:39:00,33.2,27.4,29.67,West,271,0.0,0.0,79,0.00,,,0.00,0.00,VWS V14.01,2013-02-14 06:39:00,
2013-02-14 01:40:00,33.2,27.4,29.67,WSW,257,0.0,0.0,79,0.00,,,0.00,0.00,VWS V14.01,2013-02-14 06:40:00,
2013-02-14 01:41:00,33.2,27.4,29.67,West,270,0.0,0.0,79,0.00,,,0.00,0.00,VWS V14.01,2013-02-14 06:41:00,
2013-02-14 01:42:00,33.2,27.1,29.67,West,267,0.0,0.0,78,0.00,,,0.00,0.00,VWS V14.01,2013-02-14 06:42:00,
2013-02-14 01:43:00,33.2,27.1,29.67,West,260,0.0,0.0,78,0.00,,,0.00,0.00,VWS V14.01,2013-02-14 06:43:00,
2013-02-14 01:44:00,33.2,27.1,29.67,SSW,193,0.0,0.0,78,0.00,,,0.00,0.00,VWS V14.01,2013-02-14 06:44:00,
2013-02-14 01:45:00,33.2,27.4,29.67,West,275,0.0,0.0,79,0.00,,,0.00,0.00,VWS V14.01,2013-02-14 06:45:00,
2013-02-14 01:46:00,33.2,27.1,29.67,WSW,258,0.0,0.0,78,0.00,,,0.00,0.00,VWS V14.01,2013-02-14 06:46:00,
2013-02-14 01:47:00,33.2,27.1,29.67,West,274,0.0,0.0,78,0.00,,,0.00,0.00,VWS V14.01,2013-02-14 06:47:00,
2013-02-14 01:48:00,33.2,27.1,29.67,SW,232,0.0,0.0,78,0.00,,,0.00,0.00,VWS V14.01,2013-02-14 06:48:00,
2013-02-14 01:49:00,33.2,27.1,29.67,West,270,0.0,0.0,78,0.00,,,0.00,0.00,VWS V14.01,2013-02-14 06:49:00,
2013-02-14 01:50:00,33.2,27.1,29.67,West,275,0.0,0.0,78,0.00,,,0.00,0.00,VWS V14.01,2013-02-14 06:50:00,
2013-02-14 01:51:00,33.2,27.1,29.67,West,271,0.0,0.0,78,0.00,,,0.00,0.00,VWS V14.01,2013-02-14 06:51:00,
2013-02-14 01:52:00,33.2,27.1,29.67,West,268,0.0,0.0,78,0.00,,,0.00,0.00,VWS V14.01,2013-02-14 06:52:00,
2013-02-14 01:53:00,33.2,27.1,29.67,NW,323,0.0,0.0,78,0.00,,,0.00,0.00,VWS V14.01,2013-02-14 06:53:00,
2013-02-14 01:54:00,33.2,26.8,29.67,West,274,0.0,0.0,77,0.00,,,0.00,0.00,VWS V14.01,2013-02-14 06:54:00,
2013-02-14 01:55:00,33.2,26.8,29.67,WSW,247,0.0,0.0,77,0.00,,,0.00,0.00,VWS V14.01,2013-02-14 06:55:00,
2013-02-14 01:56:00,33.2,27.1,29.67,West,271,0.0,0.0,78,0.00,,,0.00,0.00,VWS V14.01,2013-02-14 06:56:00,
2013-02-14 01:57:00,33.2,26.8,29.67,SSE,155,0.0,0.0,77,0.00,,,0.00,0.00,VWS V14.01,2013-02-14 06:57:00,
2013-02-14 01:58:00,33.2,26.8,29.67,West,265,0.0,0.0,77,0.00,,,0.00,0.00,VWS V14.01,2013-02-14 06:58:00,
2013-02-14 01:59:00,33.2,26.8,29.67,West,274,0.0,0.0,77,0.00,,,0.00,0.00,VWS V14.01,2013-02-14 06:59:00,
2013-02-14 02:00:00,33.2,26.8,29.67,West,270,0.0,0.0,77,0.00,,,0.00,0.00,VWS V14.01,2013-02-14 07:00:00,
2013-02-14 02:01:00,33.2,26.8,29.67,WSW,244,0.0,0.0,77,0.00,,,0.00,0.00,VWS V14.01,2013-02-14 07:01:00,
2013-02-14 02:02:00,33.2,26.8,29.67,SW,217,0.0,0.0,77,0.00,,,0.00,0.00,VWS V14.01,2013-02-14 07:02:00,
2013-02-14 02:03:00,33.2,26.8,29.67,WSW,247,0.0,0.0,77,0.00,,,0.00,0.00,VWS V14.01,2013-02-14 07:03:00,
2013-02-14 02:04:00,33.2,26.8,29.67,West,274,0.0,0.0,77,0.00,,,0.00,0.00,VWS V14.01,2013-02-14 07:04:00,
2013-02-14 02:05:00,33.2,26.8,29.67,WSW,254,0.0,0.0,77,0.00,,,0.00,0.00,VWS V14.01,2013-02-14 07:05:00,
2013-02-14 02:06:00,33.2,26.8,29.67,West,261,0.0,0.0,77,0.00,,,0.00,0.00,VWS V14.01,2013-02-14 07:06:00,
2013-02-14 02:07:00,33.2,26.8,29.67,SW,217,0.0,0.0,77,0.00,,,0.00,0.00,VWS V14.01,2013-02-14 07:07:00,
2013-02-14 02:08:00,33.2,26.8,29.67,West,277,0.0,0.0,77,0.00,,,0.00,0.00,VWS V14.01,2013-02-14 07:08:00,
2013-02-14 02:09:00,33.2,26.8,29.67,SW,226,0.0,0.0,77,0.00,,,0.00,0.00,VWS V14.01,2013-02-14 07:09:00,
2013-02-14 02:10:00,33.2,26.5,29.67,WSW,248,0.0,0.0,76,0.00,,,0.00,0.00,VWS V14.01,2013-02-14 07:10:00,
2013-02-14 02:11:00,33.2,26.8,29.67,WSW,250,0.0,0.0,77,0.00,,,0.00,0.00,VWS V14.01,2013-02-14 07:11:00,
2013-02-14 02:12:00,33.2,26.8,29.67,WSW,243,0.0,0.0,77,0.00,,,0.00,0.00,VWS V14.01,2013-02-14 07:12:00,
2013-02-14 02:13:00,33.2,26.8,29.67,West,277,0.0,0.0,77,0.00,,,0.00,0.00,VWS V14.01,2013-02-14 07:13:00,
2013-02-14 02:14:00,33.2,26.5,29.67,West,261,0.0,0.0,76,0.00,,,0.00,0.00,VWS V14.01,2013-02-14 07:14:00,
2013-02-14 02:15:00,33.2,26.5,29.67,WSW,248,0.0,0.0,76,0.00,,,0.00,0.00,VWS V14.01,2013-02-14 07:15:00,
2013-02-14 02:16:00,33.2,26.5,29.67,WSW,257,0.0,0.0,76,0.00,,,0.00,0.00,VWS V14.01,2013-02-14 07:16:00,
2013-02-14 02:17:00,33.2,26.5,29.67,SSW,203,0.0,0.0,76,0.00,,,0.00,0.00,VWS V14.01,2013-02-14 07:17:00,
2013-02-14 02:18:00,33.2,26.5,29.67,WSW,258,0.0,0.0,76,0.00,,,0.00,0.00,VWS V14.01,2013-02-14 07:18:00,
2013-02-14 02:19:00,33.2,26.5,29.67,WSW,239,0.0,0.0,76,0.00,,,0.00,0.00,VWS V14.01,2013-02-14 07:19:00,
2013-02-14 02:20:00,33.2,26.5,29.67,West,260,0.0,0.0,76,0.00,,,0.00,0.00,VWS V14.01,2013-02-14 07:20:00,
2013-02-14 02:21:00,33.2,26.5,29.67,SW,236,0.0,0.0,76,0.00,,,0.00,0.00,VWS V14.01,2013-02-14 07:21:00,
2013-02-14 02:22:00,33.2,26.5,29.67,WSW,251,0.0,0.0,76,0.00,,,0.00,0.00,VWS V14.01,2013-02-14 07:22:00,
2013-02-14 02:23:00,33.2,26.5,29.67,West,270,0.0,0.0,76,0.00,,,0.00,0.00,VWS V14.01,2013-02-14 07:23:00,
2013-02-14 02:24:00,33.2,26.5,29.67,WSW,239,0.0,0.0,76,0.00,,,0.00,0.00,VWS V14.01,2013-02-14 07:24:00,
2013-02-14 02:25:00,33.2,26.5,29.67,SSW,213,0.0,0.0,76,0.00,,,0.00,0.00,VWS V14.01,2013-02-14 07:25:00,
2013-02-14 02:26:00,33.2,26.5,29.67,West,270,0.0,0.0,76,0.00,,,0.00,0.00,VWS V14.01,2013-02-14 07:26:00,
2013-02-14 02:27:00,33.2,26.5,29.67,WNW,285,0.0,0.0,76,0.00,,,0.00,0.00,VWS V14.01,2013-02-14 07:27:00,
2013-02-14 02:28:00,33.2,26.5,29.67,SW,216,0.0,0.0,76,0.00,,,0.00,0.00,VWS V14.01,2013-02-14 07:28:00,
2013-02-14 02:29:00,33.2,26.5,29.67,West,261,0.0,0.0,76,0.00,,,0.00,0.00,VWS V14.01,2013-02-14 07:29:00,
2013-02-14 02:30:00,33.2,26.5,29.68,WSW,244,0.0,0.0,76,0.00,,,0.00,0.00,VWS V14.01,2013-02-14 07:30:00,
2013-02-14 02:31:00,33.2,26.5,29.68,SSW,212,0.0,0.0,76,0.00,,,0.00,0.00,VWS V14.01,2013-02-14 07:31:00,
2013-02-14 02:32:00,33.2,26.1,29.68,West,281,0.0,0.0,75,0.00,,,0.00,0.00,VWS V14.01,2013-02-14 07:32:00,
2013-02-14 02:33:00,33.2,26.1,29.68,WSW,241,0.0,0.0,75,0.00,,,0.00,0.00,VWS V14.01,2013-02-14 07:33:00,
2013-02-14 02:34:00,33.1,26.0,29.68,WNW,288,0.0,0.0,75,0.00,,,0.00,0.00,VWS V14.01,2013-02-14 07:34:00,
2013-02-14 02:35:00,33.2,26.5,29.68,WSW,244,0.0,0.0,76,0.00,,,0.00,0.00,VWS V14.01,2013-02-14 07:35:00,
2013-02-14 02:36:00,33.2,26.1,29.68,SW,216,0.0,0.0,75,0.00,,,0.00,0.00,VWS V14.01,2013-02-14 07:36:00,
2013-02-14 02:37:00,33.2,26.1,29.68,West,271,0.0,0.0,75,0.00,,,0.00,0.00,VWS V14.01,2013-02-14 07:37:00,
2013-02-14 02:38:00,33.2,26.1,29.68,South,174,0.0,0.0,75,0.00,,,0.00,0.00,VWS V14.01,2013-02-14 07:38:00,
2013-02-14 02:39:00,33.2,26.1,29.68,West,265,0.0,0.0,75,0.00,,,0.00,0.00,VWS V14.01,2013-02-14 07:39:00,
2013-02-14 02:40:00,33.1,26.4,29.68,WSW,246,0.0,0.0,76,0.00,,,0.00,0.00,VWS V14.01,2013-02-14 07:40:00,
2013-02-14 02:41:00,33.2,26.1,29.68,SW,216,0.0,0.0,75,0.00,,,0.00,0.00,VWS V14.01,2013-02-14 07:41:00,
2013-02-14 02:42:00,33.1,26.0,29.68,West,264,0.0,0.0,75,0.00,,,0.00,0.00,VWS V14.01,2013-02-14 07:42:00,
2013-02-14 02:43:00,33.1,26.0,29.68,West,263,0.0,0.0,75,0.00,,,0.00,0.00,VWS V14.01,2013-02-14 07:43:00,
2013-02-14 02:44:00,33.1,26.0,29.68,WSW,253,0.0,0.0,75,0.00,,,0.00,0.00,VWS V14.01,2013-02-14 07:44:00,
2013-02-14 02:45:00,33.1,26.0,29.69,SW,234,0.0,0.0,75,0.00,,,0.00,0.00,VWS V14.01,2013-02-14 07:45:00,
2013-02-14 02:46:00,33.1,26.0,29.68,SW,226,0.0,0.0,75,0.00,,,0.00,0.00,VWS V14.01,2013-02-14 07:46:00,
2013-02-14 02:47:00,33.1,26.0,29.69,SSW,205,0.0,0.0,75,0.00,,,0.00,0.00,VWS V14.01,2013-02-14 07:47:00,
2013-02-14 02:48:00,33.1,25.7,29.69,WSW,239,0.0,0.0,74,0.00,,,0.00,0.00,VWS V14.01,2013-02-14 07:48:00,
2013-02-14 02:49:00,33.1,25.7,29.69,SSW,198,0.0,0.0,74,0.00,,,0.00,0.00,VWS V14.01,2013-02-14 07:49:00,
2013-02-14 02:50:00,33.1,25.7,29.69,WSW,239,0.0,0.0,74,0.00,,,0.00,0.00,VWS V14.01,2013-02-14 07:50:00,
2013-02-14 02:51:00,33.1,26.0,29.69,WSW,257,0.0,0.0,75,0.00,,,0.00,0.00,VWS V14.01,2013-02-14 07:51:00,
2013-02-14 02:52:00,33.1,25.7,29.69,SW,234,0.0,0.0,74,0.00,,,0.00,0.00,VWS V14.01,2013-02-14 07:52:00,
2013-02-14 02:53:00,33.1,25.7,29.69,West,265,0.0,0.0,74,0.00,,,0.00,0.00,VWS V14.01,2013-02-14 07:53:00,
2013-02-14 02:54:00,33.1,25.7,29.69,SW,229,0.0,0.0,74,0.00,,,0.00,0.00,VWS V14.01,2013-02-14 07:54:00,
2013-02-14 02:55:00,33.1,25.7,29.69,SSW,202,0.0,0.0,74,0.00,,,0.00,0.00,VWS V14.01,2013-02-14 07:55:00,
2013-02-14 02:56:00,33.1,25.7,29.69,WSW,248,0.0,0.0,74,0.00,,,0.00,0.00,VWS V14.01,2013-02-14 07:56:00,
2013-02-14 02:57:00,32.9,25.5,29.69,WSW,253,0.0,0.0,74,0.00,,,0.00,0.00,VWS V14.01,2013-02-14 07:57:00,
2013-02-14 02:58:00,32.9,25.9,29.69,NW,306,0.0,0.0,75,0.00,,,0.00,0.00,VWS V14.01,2013-02-14 07:58:00,
2013-02-14 02:59:00,32.9,25.9,29.69,West,272,0.0,0.0,75,0.00,,,0.00,0.00,VWS V14.01,2013-02-14 07:59:00,
2013-02-14 03:00:00,32.9,25.9,29.70,West,274,0.0,0.0,75,0.00,,,0.00,0.00,VWS V14.01,2013-02-14 08:00:00,
2013-02-14 03:01:00,32.9,25.5,29.70,WSW,256,0.0,0.0,74,0.00,,,0.00,0.00,VWS V14.01,2013-02-14 08:01:00,
2013-02-14 03:02:00,32.9,25.5,29.69,WSW,253,0.0,0.0,74,0.00,,,0.00,0.00,VWS V14.01,2013-02-14 08:02:00,
2013-02-14 03:03:00,32.9,25.5,29.70,West,264,0.0,0.0,74,0.00,,,0.00,0.00,VWS V14.01,2013-02-14 08:03:00,
2013-02-14 03:04:00,32.9,25.9,29.70,WSW,237,0.0,0.0,75,0.00,,,0.00,0.00,VWS V14.01,2013-02-14 08:04:00,
2013-02-14 03:05:00,32.9,25.9,29.70,WSW,248,0.0,0.0,75,0.00,,,0.00,0.00,VWS V14.01,2013-02-14 08:05:00,
2013-02-14 03:06:00,32.9,25.9,29.70,West,265,0.0,0.0,75,0.00,,,0.00,0.00,VWS V14.01,2013-02-14 08:06:00,
2013-02-14 03:07:00,32.9,25.5,29.70,West,278,0.0,0.0,74,0.00,,,0.00,0.00,VWS V14.01,2013-02-14 08:07:00,
2013-02-14 03:08:00,32.9,25.9,29.70,SW,234,0.0,0.0,75,0.00,,,0.00,0.00,VWS V14.01,2013-02-14 08:08:00,
2013-02-14 03:09:00,32.9,25.9,29.70,SW,236,0.0,0.0,75,0.00,,,0.00,0.00,VWS V14.01,2013-02-14 08:09:00,
2013-02-14 03:10:00,32.9,25.9,29.70,WSW,246,0.0,0.0,75,0.00,,,0.00,0.00,VWS V14.01,2013-02-14 08:10:00,
2013-02-14 03:11:00,32.8,25.8,29.70,WSW,253,0.0,0.0,75,0.00,,,0.00,0.00,VWS V14.01,2013-02-14 08:11:00,
2013-02-14 03:12:00,32.8,26.1,29.70,SW,222,0.0,0.0,76,0.00,,,0.00,0.00,VWS V14.01,2013-02-14 08:12:00,
2013-02-14 03:13:00,32.9,25.9,29.70,SW,234,0.0,0.0,75,0.00,,,0.00,0.00,VWS V14.01,2013-02-14 08:13:00,
2013-02-14 03:14:00,32.8,25.8,29.70,WSW,253,0.0,0.0,75,0.00,,,0.00,0.00,VWS V14.01,2013-02-14 08:14:00,
2013-02-14 03:15:00,32.8,25.8,29.70,WSW,239,0.0,0.0,75,0.00,,,0.00,0.00,VWS V14.01,2013-02-14 08:15:00,
2013-02-14 03:16:00,32.8,25.8,29.70,SW,222,0.0,0.0,75,0.00,,,0.00,0.00,VWS V14.01,2013-02-14 08:16:00,
2013-02-14 03:17:00,32.8,25.8,29.70,WSW,240,0.0,0.0,75,0.00,,,0.00,0.00,VWS V14.01,2013-02-14 08:17:00,
2013-02-14 03:18:00,32.8,25.8,29.70,WNW,294,0.0,0.0,75,0.00,,,0.00,0.00,VWS V14.01,2013-02-14 08:18:00,
2013-02-14 03:19:00,32.8,25.8,29.70,WSW,253,0.0,0.0,75,0.00,,,0.00,0.00,VWS V14.01,2013-02-14 08:19:00,
2013-02-14 03:20:00,32.8,25.8,29.70,WSW,239,0.0,0.0,75,0.00,,,0.00,0.00,VWS V14.01,2013-02-14 08:20:00,
2013-02-14 03:21:00,32.8,25.8,29.70,WSW,256,0.0,0.0,75,0.00,,,0.00,0.00,VWS V14.01,2013-02-14 08:21:00,
2013-02-14 03:22:00,32.8,25.8,29.70,WSW,241,0.0,0.0,75,0.00,,,0.00,0.00,VWS V14.01,2013-02-14 08:22:00,
2013-02-14 03:23:00,32.8,25.8,29.70,WSW,243,0.0,0.0,75,0.00,,,0.00,0.00,VWS V14.01,2013-02-14 08:23:00,
2013-02-14 03:24:00,32.8,25.8,29.70,West,268,0.0,0.0,75,0.00,,,0.00,0.00,VWS V14.01,2013-02-14 08:24:00,
2013-02-14 03:25:00,32.8,25.8,29.70,WSW,246,0.0,0.0,75,0.00,,,0.00,0.00,VWS V14.01,2013-02-14 08:25:00,
2013-02-14 03:26:00,32.8,25.8,29.70,SW,232,0.0,0.0,75,0.00,,,0.00,0.00,VWS V14.01,2013-02-14 08:26:00,
2013-02-14 03:27:00,32.8,25.8,29.70,WSW,256,0.0,0.0,75,0.00,,,0.00,0.00,VWS V14.01,2013-02-14 08:27:00,
2013-02-14 03:28:00,32.8,25.8,29.70,West,264,0.0,0.0,75,0.00,,,0.00,0.00,VWS V14.01,2013-02-14 08:28:00,
2013-02-14 03:29:00,32.8,25.8,29.70,West,267,0.0,0.0,75,0.00,,,0.00,0.00,VWS V14.01,2013-02-14 08:29:00,
2013-02-14 03:30:00,32.8,26.1,29.70,WSW,258,0.0,0.0,76,0.00,,,0.00,0.00,VWS V14.01,2013-02-14 08:30:00,
2013-02-14 03:31:00,32.8,26.1,29.70,West,270,0.0,0.0,76,0.00,,,0.00,0.00,VWS V14.01,2013-02-14 08:31:00,
2013-02-14 03:32:00,32.8,26.1,29.70,West,277,0.0,0.0,76,0.00,,,0.00,0.00,VWS V14.01,2013-02-14 08:32:00,
2013-02-14 03:33:00,32.8,26.1,29.70,West,265,0.0,0.0,76,0.00,,,0.00,0.00,VWS V14.01,2013-02-14 08:33:00,
2013-02-14 03:34:00,32.8,26.1,29.70,West,267,0.0,0.0,76,0.00,,,0.00,0.00,VWS V14.01,2013-02-14 08:34:00,
2013-02-14 03:35:00,32.8,26.1,29.70,WSW,258,0.0,0.0,76,0.00,,,0.00,0.00,VWS V14.01,2013-02-14 08:35:00,
2013-02-14 03:36:00,32.8,26.1,29.70,West,272,0.0,0.0,76,0.00,,,0.00,0.00,VWS V14.01,2013-02-14 08:36:00,
2013-02-14 03:37:00,32.8,26.1,29.70,WSW,240,0.0,0.0,76,0.00,,,0.00,0.00,VWS V14.01,2013-02-14 08:37:00,
2013-02-14 03:38:00,32.8,26.1,29.70,SW,233,0.0,0.0,76,0.00,,,0.00,0.00,VWS V14.01,2013-02-14 08:38:00,
2013-02-14 03:39:00,32.8,26.1,29.70,West,268,0.0,0.0,76,0.00,,,0.00,0.00,VWS V14.01,2013-02-14 08:39:00,
2013-02-14 03:40:00,32.8,26.1,29.70,WSW,256,0.0,0.0,76,0.00,,,0.00,0.00,VWS V14.01,2013-02-14 08:40:00,
2013-02-14 03:41:00,32.8,26.1,29.70,SW,236,0.0,0.0,76,0.00,,,0.00,0.00,VWS V14.01,2013-02-14 08:41:00,
2013-02-14 03:42:00,32.8,26.1,29.70,West,268,0.0,0.0,76,0.00,,,0.00,0.00,VWS V14.01,2013-02-14 08:42:00,
2013-02-14 03:43:00,32.8,26.1,29.70,WNW,291,0.0,0.0,76,0.00,,,0.00,0.00,VWS V14.01,2013-02-14 08:43:00,
2013-02-14 03:44:00,32.8,26.1,29.70,SSW,212,0.0,0.0,76,0.00,,,0.00,0.00,VWS V14.01,2013-02-14 08:44:00,
2013-02-14 03:45:00,32.8,26.1,29.70,West,265,0.0,0.0,76,0.00,,,0.00,0.00,VWS V14.01,2013-02-14 08:45:00,
2013-02-14 03:46:00,32.7,25.7,29.71,West,272,0.0,0.0,75,0.00,,,0.00,0.00,VWS V14.01,2013-02-14 08:46:00,
2013-02-14 03:47:00,32.7,25.7,29.71,West,271,0.0,0.0,75,0.00,,,0.00,0.00,VWS V14.01,2013-02-14 08:47:00,
2013-02-14 03:48:00,32.7,26.0,29.71,West,264,0.0,0.0,76,0.00,,,0.00,0.00,VWS V14.01,2013-02-14 08:48:00,
2013-02-14 03:49:00,32.7,26.0,29.71,WSW,244,0.0,0.0,76,0.00,,,0.00,0.00,VWS V14.01,2013-02-14 08:49:00,
2013-02-14 03:50:00,32.8,26.1,29.71,West,270,0.0,0.0,76,0.00,,,0.00,0.00,VWS V14.01,2013-02-14 08:50:00,
2013-02-14 03:51:00,32.7,25.7,29.71,South,191,0.0,0.0,75,0.00,,,0.00,0.00,VWS V14.01,2013-02-14 08:51:00,
2013-02-14 03:52:00,32.7,25.7,29.71,SW,230,0.0,0.0,75,0.00,,,0.00,0.00,VWS V14.01,2013-02-14 08:52:00,
2013-02-14 03:53:00,32.7,25.7,29.71,West,263,0.0,0.0,75,0.00,,,0.00,0.00,VWS V14.01,2013-02-14 08:53:00,
2013-02-14 03:54:00,32.7,25.7,29.71,WNW,302,0.0,0.0,75,0.00,,,0.00,0.00,VWS V14.01,2013-02-14 08:54:00,
2013-02-14 03:55:00,32.5,25.5,29.71,WSW,253,0.0,0.0,75,0.00,,,0.00,0.00,VWS V14.01,2013-02-14 08:55:00,
2013-02-14 03:56:00,32.7,25.7,29.71,South,191,0.0,0.0,75,0.00,,,0.00,0.00,VWS V14.01,2013-02-14 08:56:00,
2013-02-14 03:57:00,32.5,25.1,29.71,WSW,239,0.0,0.0,74,0.00,,,0.00,0.00,VWS V14.01,2013-02-14 08:57:00,
2013-02-14 03:58:00,32.5,25.1,29.71,WSW,239,0.0,0.0,74,0.00,,,0.00,0.00,VWS V14.01,2013-02-14 08:58:00,
2013-02-14 03:59:00,32.5,25.1,29.71,West,274,0.0,0.0,74,0.00,,,0.00,0.00,VWS V14.01,2013-02-14 08:59:00,
2013-02-14 04:00:00,32.5,25.1,29.70,WSW,251,0.0,0.0,74,0.00,,,0.00,0.00,VWS V14.01,2013-02-14 09:00:00,
2013-02-14 04:01:00,32.5,25.1,29.71,WNW,285,0.0,0.0,74,0.00,,,0.00,0.00,VWS V14.01,2013-02-14 09:01:00,
2013-02-14 04:02:00,32.4,25.0,29.70,WSW,244,0.0,0.0,74,0.00,,,0.00,0.00,VWS V14.01,2013-02-14 09:02:00,
2013-02-14 04:03:00,32.4,24.7,29.70,WNW,284,0.0,0.0,73,0.00,,,0.00,0.00,VWS V14.01,2013-02-14 09:03:00,
2013-02-14 04:04:00,32.4,24.7,29.70,WNW,294,0.0,0.0,73,0.00,,,0.00,0.00,VWS V14.01,2013-02-14 09:04:00,
2013-02-14 04:05:00,32.2,24.5,29.70,West,270,0.0,0.0,73,0.00,,,0.00,0.00,VWS V14.01,2013-02-14 09:05:00,
2013-02-14 04:06:00,32.4,25.0,29.70,WSW,244,0.0,0.0,74,0.00,,,0.00,0.00,VWS V14.01,2013-02-14 09:06:00,
2013-02-14 04:07:00,32.2,24.5,29.70,WSW,243,0.0,0.0,73,0.00,,,0.00,0.00,VWS V14.01,2013-02-14 09:07:00,
2013-02-14 04:08:00,32.2,24.5,29.70,WSW,251,0.0,0.0,73,0.00,,,0.00,0.00,VWS V14.01,2013-02-14 09:08:00,
2013-02-14 04:09:00,32.2,24.5,29.70,SW,230,0.0,0.0,73,0.00,,,0.00,0.00,VWS V14.01,2013-02-14 09:09:00,
2013-02-14 04:10:00,32.2,24.5,29.70,West,263,0.0,0.0,73,0.00,,,0.00,0.00,VWS V14.01,2013-02-14 09:10:00,
2013-02-14 04:11:00,32.2,24.5,29.70,West,260,0.0,0.0,73,0.00,,,0.00,0.00,VWS V14.01,2013-02-14 09:11:00,
2013-02-14 04:12:00,32.2,24.5,29.70,WSW,248,0.0,0.0,73,0.00,,,0.00,0.00,VWS V14.01,2013-02-14 09:12:00,
2013-02-14 04:13:00,32.1,24.4,29.70,WSW,239,0.0,0.0,73,0.00,,,0.00,0.00,VWS V14.01,2013-02-14 09:13:00,
2013-02-14 04:14:00,32.1,24.4,29.70,West,274,0.0,0.0,73,0.00,,,0.00,0.00,VWS V14.01,2013-02-14 09:14:00,
2013-02-14 04:15:00,32.1,24.4,29.71,West,263,0.0,0.0,73,0.00,,,0.00,0.00,VWS V14.01,2013-02-14 09:15:00,
2013-02-14 04:16:00,32.2,24.5,29.70,WSW,250,0.0,0.0,73,0.00,,,0.00,0.00,VWS V14.01,2013-02-14 09:16:00,
2013-02-14 04:17:00,31.9,24.2,29.71,West,274,0.0,0.0,73,0.00,,,0.00,0.00,VWS V14.01,2013-02-14 09:17:00,
2013-02-14 04:18:00,31.9,24.2,29.71,West,277,0.0,0.0,73,0.00,,,0.00,0.00,VWS V14.01,2013-02-14 09:18:00,
2013-02-14 04:19:00,31.9,23.9,29.71,West,275,0.0,0.0,72,0.00,,,0.00,0.00,VWS V14.01,2013-02-14 09:19:00,
2013-02-14 04:20:00,31.9,23.9,29.71,West,275,0.0,0.0,72,0.00,,,0.00,0.00,VWS V14.01,2013-02-14 09:20:00,
2013-02-14 04:21:00,31.8,23.8,29.71,West,264,0.0,0.0,72,0.00,,,0.00,0.00,VWS V14.01,2013-02-14 09:21:00,
2013-02-14 04:22:00,31.9,24.2,29.71,West,274,0.0,0.0,73,0.00,,,0.00,0.00,VWS V14.01,2013-02-14 09:22:00,
2013-02-14 04:23:00,31.8,23.8,29.71,WSW,240,0.0,0.0,72,0.00,,,0.00,0.00,VWS V14.01,2013-02-14 09:23:00,
2013-02-14 04:24:00,31.8,23.8,29.71,SW,236,0.0,0.0,72,0.00,,,0.00,0.00,VWS V14.01,2013-02-14 09:24:00,
2013-02-14 04:25:00,31.8,23.8,29.71,South,171,0.0,0.0,72,0.00,,,0.00,0.00,VWS V14.01,2013-02-14 09:25:00,
2013-02-14 04:26:00,31.8,23.8,29.71,SW,230,0.0,0.0,72,0.00,,,0.00,0.00,VWS V14.01,2013-02-14 09:26:00,
2013-02-14 04:27:00,31.8,23.8,29.71,WSW,247,0.0,0.0,72,0.00,,,0.00,0.00,VWS V14.01,2013-02-14 09:27:00,
2013-02-14 04:28:00,31.8,23.8,29.71,West,278,0.0,0.0,72,0.00,,,0.00,0.00,VWS V14.01,2013-02-14 09:28:00,
2013-02-14 04:29:00,31.6,23.6,29.71,West,265,0.0,0.0,72,0.00,,,0.00,0.00,VWS V14.01,2013-02-14 09:29:00,
2013-02-14 04:30:00,31.6,23.6,29.71,SW,219,0.0,0.0,72,0.00,,,0.00,0.00,VWS V14.01,2013-02-14 09:30:00,
2013-02-14 04:31:00,31.6,23.6,29.71,SW,217,0.0,0.0,72,0.00,,,0.00,0.00,VWS V14.01,2013-02-14 09:31:00,
2013-02-14 04:32:00,31.6,23.6,29.71,South,182,0.0,0.0,72,0.00,,,0.00,0.00,VWS V14.01,2013-02-14 09:32:00,
2013-02-14 04:33:00,31.8,23.8,29.71,West,278,0.0,0.0,72,0.00,,,0.00,0.00,VWS V14.01,2013-02-14 09:33:00,
2013-02-14 04:34:00,31.5,23.9,29.71,WNW,285,0.0,0.0,73,0.00,,,0.00,0.00,VWS V14.01,2013-02-14 09:34:00,
2013-02-14 04:35:00,31.5,23.9,29.71,SSW,209,0.0,0.0,73,0.00,,,0.00,0.00,VWS V14.01,2013-02-14 09:35:00,
2013-02-14 04:36:00,31.5,23.9,29.71,West,274,0.0,0.0,73,0.00,,,0.00,0.00,VWS V14.01,2013-02-14 09:36:00,
2013-02-14 04:37:00,31.5,23.5,29.71,WSW,239,0.0,0.0,72,0.00,,,0.00,0.00,VWS V14.01,2013-02-14 09:37:00,
2013-02-14 04:38:00,31.5,23.5,29.71,West,267,0.0,0.0,72,0.00,,,0.00,0.00,VWS V14.01,2013-02-14 09:38:00,
2013-02-14 04:39:00,31.5,23.9,29.71,WNW,285,0.0,0.0,73,0.00,,,0.00,0.00,VWS V14.01,2013-02-14 09:39:00,
2013-02-14 04:40:00,31.3,23.3,29.71,SW,233,0.0,0.0,72,0.00,,,0.00,0.00,VWS V14.01,2013-02-14 09:40:00,
2013-02-14 04:41:00,31.3,23.3,29.71,WSW,241,0.0,0.0,72,0.00,,,0.00,0.00,VWS V14.01,2013-02-14 09:41:00,
2013-02-14 04:42:00,31.3,23.3,29.71,SW,232,0.0,0.0,72,0.00,,,0.00,0.00,VWS V14.01,2013-02-14 09:42:00,
2013-02-14 04:43:00,31.3,23.3,29.71,SW,232,0.0,0.0,72,0.00,,,0.00,0.00,VWS V14.01,2013-02-14 09:43:00,
2013-02-14 04:44:00,31.3,23.3,29.71,WSW,251,0.0,0.0,72,0.00,,,0.00,0.00,VWS V14.01,2013-02-14 09:44:00,
2013-02-14 04:45:00,31.3,23.3,29.71,SW,233,0.0,0.0,72,0.00,,,0.00,0.00,VWS V14.01,2013-02-14 09:45:00,
2013-02-14 04:46:00,31.3,23.3,29.72,SSW,193,0.0,0.0,72,0.00,,,0.00,0.00,VWS V14.01,2013-02-14 09:46:00,
2013-02-14 04:47:00,31.3,23.3,29.72,WSW,250,0.0,0.0,72,0.00,,,0.00,0.00,VWS V14.01,2013-02-14 09:47:00,
2013-02-14 04:48:00,31.3,23.3,29.72,SW,224,0.0,0.0,72,0.00,,,0.00,0.00,VWS V14.01,2013-02-14 09:48:00,
2013-02-14 04:49:00,31.3,23.3,29.72,SE,145,0.0,0.0,72,0.00,,,0.00,0.00,VWS V14.01,2013-02-14 09:49:00,
2013-02-14 04:50:00,31.3,23.3,29.72,South,175,0.0,0.0,72,0.00,,,0.00,0.00,VWS V14.01,2013-02-14 09:50:00,
2013-02-14 04:51:00,31.3,23.3,29.72,SSW,193,0.0,0.0,72,0.00,,,0.00,0.00,VWS V14.01,2013-02-14 09:51:00,
2013-02-14 04:52:00,31.3,23.7,29.72,NW,318,0.0,0.0,73,0.00,,,0.00,0.00,VWS V14.01,2013-02-14 09:52:00,
2013-02-14 04:53:00,31.2,23.6,29.72,WNW,284,0.0,0.0,73,0.00,,,0.00,0.00,VWS V14.01,2013-02-14 09:53:00,
2013-02-14 04:54:00,31.2,23.6,29.72,SSW,203,0.0,0.0,73,0.00,,,0.00,0.00,VWS V14.01,2013-02-14 09:54:00,
2013-02-14 04:57:00,31.3,23.7,29.72,NW,318,0.0,0.0,73,0.00,,,0.00,0.00,VWS V14.01,2013-02-14 09:57:00,
2013-02-14 04:59:00,31.0,23.4,29.73,SW,227,0.0,0.0,73,0.00,,,0.00,0.00,VWS V14.01,2013-02-14 09:59:00,
2013-02-14 05:00:00,31.0,23.4,29.73,SW,226,0.0,0.0,73,0.00,,,0.00,0.00,VWS V14.01,2013-02-14 10:00:00,
2013-02-14 05:05:00,31.0,23.4,29.73,SW,227,0.0,0.0,73,0.00,,,0.00,0.00,VWS V14.01,2013-02-14 10:05:00,
2013-02-14 05:06:00,30.9,23.3,29.73,SSW,193,0.0,0.0,73,0.00,,,0.00,0.00,VWS V14.01,2013-02-14 10:06:00,
2013-02-14 05:07:00,30.9,23.3,29.73,SSW,196,0.0,0.0,73,0.00,,,0.00,0.00,VWS V14.01,2013-02-14 10:07:00,
2013-02-14 05:08:00,30.9,23.3,29.73,WSW,251,0.0,0.0,73,0.00,,,0.00,0.00,VWS V14.01,2013-02-14 10:08:00,
2013-02-14 05:09:00,30.7,23.1,29.73,South,188,0.0,0.0,73,0.00,,,0.00,0.00,VWS V14.01,2013-02-14 10:09:00,
2013-02-14 05:10:00,30.9,23.3,29.73,SW,216,0.0,0.0,73,0.00,,,0.00,0.00,VWS V14.01,2013-02-14 10:10:00,
2013-02-14 05:11:00,30.7,23.1,29.73,WSW,250,0.0,0.0,73,0.00,,,0.00,0.00,VWS V14.01,2013-02-14 10:11:00,
2013-02-14 05:12:00,30.7,23.1,29.73,West,268,0.0,0.0,73,0.00,,,0.00,0.00,VWS V14.01,2013-02-14 10:12:00,
2013-02-14 05:13:00,30.7,23.1,29.73,WSW,244,0.0,0.0,73,0.00,,,0.00,0.00,VWS V14.01,2013-02-14 10:13:00,
2013-02-14 05:14:00,30.7,23.1,29.73,WSW,243,0.0,0.0,73,0.00,,,0.00,0.00,VWS V14.01,2013-02-14 10:14:00,
2013-02-14 05:15:00,30.6,23.0,29.73,West,277,0.0,0.0,73,0.00,,,0.00,0.00,VWS V14.01,2013-02-14 10:15:00,
2013-02-14 05:16:00,30.7,23.1,29.73,WSW,250,0.0,0.0,73,0.00,,,0.00,0.00,VWS V14.01,2013-02-14 10:16:00,
2013-02-14 05:17:00,30.6,23.0,29.73,South,175,0.0,0.0,73,0.00,,,0.00,0.00,VWS V14.01,2013-02-14 10:17:00,
2013-02-14 05:18:00,30.6,23.0,29.73,WSW,246,0.0,0.0,73,0.00,,,0.00,0.00,VWS V14.01,2013-02-14 10:18:00,
2013-02-14 05:19:00,30.4,22.8,29.73,West,270,0.0,0.0,73,0.00,,,0.00,0.00,VWS V14.01,2013-02-14 10:19:00,
2013-02-14 05:20:00,30.4,22.8,29.73,West,265,0.0,0.0,73,0.00,,,0.00,0.00,VWS V14.01,2013-02-14 10:20:00,
2013-02-14 05:21:00,30.6,23.0,29.73,West,268,0.0,0.0,73,0.00,,,0.00,0.00,VWS V14.01,2013-02-14 10:21:00,
2013-02-14 05:22:00,30.4,22.8,29.73,WSW,258,0.0,0.0,73,0.00,,,0.00,0.00,VWS V14.01,2013-02-14 10:22:00,
2013-02-14 05:23:00,30.4,22.8,29.73,WSW,237,0.0,0.0,73,0.00,,,0.00,0.00,VWS V14.01,2013-02-14 10:23:00,
2013-02-14 05:24:00,30.4,22.8,29.73,WSW,239,0.0,0.0,73,0.00,,,0.00,0.00,VWS V14.01,2013-02-14 10:24:00,
2013-02-14 05:25:00,30.4,22.8,29.73,WSW,253,0.0,0.0,73,0.00,,,0.00,0.00,VWS V14.01,2013-02-14 10:25:00,
2013-02-14 05:26:00,30.4,22.8,29.73,West,278,0.0,0.0,73,0.00,,,0.00,0.00,VWS V14.01,2013-02-14 10:26:00,
2013-02-14 05:27:00,30.4,22.8,29.73,West,281,0.0,0.0,73,0.00,,,0.00,0.00,VWS V14.01,2013-02-14 10:27:00,
2013-02-14 05:28:00,30.3,22.7,29.73,West,260,0.0,0.0,73,0.00,,,0.00,0.00,VWS V14.01,2013-02-14 10:28:00,
2013-02-14 05:29:00,30.3,22.7,29.73,WSW,247,0.0,0.0,73,0.00,,,0.00,0.00,VWS V14.01,2013-02-14 10:29:00,
2013-02-14 05:30:00,30.3,22.7,29.73,SW,236,0.0,0.0,73,0.00,,,0.00,0.00,VWS V14.01,2013-02-14 10:30:00,
2013-02-14 05:31:00,30.4,22.8,29.73,West,271,0.0,0.0,73,0.00,,,0.00,0.00,VWS V14.01,2013-02-14 10:31:00,
2013-02-14 05:32:00,30.3,22.7,29.73,WNW,295,0.0,0.0,73,0.00,,,0.00,0.00,VWS V14.01,2013-02-14 10:32:00,
2013-02-14 05:33:00,30.3,22.7,29.73,SW,222,0.0,0.0,73,0.00,,,0.00,0.00,VWS V14.01,2013-02-14 10:33:00,
2013-02-14 05:34:00,30.3,22.7,29.73,West,261,0.0,0.0,73,0.00,,,0.00,0.00,VWS V14.01,2013-02-14 10:34:00,
2013-02-14 05:35:00,30.1,22.5,29.73,WSW,250,0.0,0.0,73,0.00,,,0.00,0.00,VWS V14.01,2013-02-14 10:35:00,
2013-02-14 05:36:00,30.1,22.5,29.73,WNW,285,0.0,0.0,73,0.00,,,0.00,0.00,VWS V14.01,2013-02-14 10:36:00,
2013-02-14 05:37:00,30.3,22.7,29.73,WNW,295,0.0,0.0,73,0.00,,,0.00,0.00,VWS V14.01,2013-02-14 10:37:00,
2013-02-14 05:38:00,30.1,22.5,29.73,WSW,253,0.0,0.0,73,0.00,,,0.00,0.00,VWS V14.01,2013-02-14 10:38:00,
2013-02-14 05:39:00,30.1,22.5,29.73,WNW,282,0.0,0.0,73,0.00,,,0.00,0.00,VWS V14.01,2013-02-14 10:39:00,
2013-02-14 05:40:00,30.1,22.2,29.73,WNW,298,0.0,0.0,72,0.00,,,0.00,0.00,VWS V14.01,2013-02-14 10:40:00,
2013-02-14 05:41:00,30.1,22.2,29.73,WSW,241,0.0,0.0,72,0.00,,,0.00,0.00,VWS V14.01,2013-02-14 10:41:00,
2013-02-14 05:42:00,30.1,22.5,29.73,West,271,0.0,0.0,73,0.00,,,0.00,0.00,VWS V14.01,2013-02-14 10:42:00,
2013-02-14 05:43:00,30.1,22.2,29.73,South,186,0.0,0.0,72,0.00,,,0.00,0.00,VWS V14.01,2013-02-14 10:43:00,
2013-02-14 05:44:00,30.1,22.2,29.73,West,264,0.0,0.0,72,0.00,,,0.00,0.00,VWS V14.01,2013-02-14 10:44:00,
2013-02-14 05:45:00,30.1,22.2,29.74,West,274,0.0,0.0,72,0.00,,,0.00,0.00,VWS V14.01,2013-02-14 10:45:00,
2013-02-14 05:46:00,30.1,22.2,29.74,West,268,0.0,0.0,72,0.00,,,0.00,0.00,VWS V14.01,2013-02-14 10:46:00,
2013-02-14 05:47:00,30.1,22.2,29.74,SW,236,0.0,0.0,72,0.00,,,0.00,0.00,VWS V14.01,2013-02-14 10:47:00,
2013-02-14 05:48:00,30.1,22.2,29.73,South,186,0.0,0.0,72,0.00,,,0.00,0.00,VWS V14.01,2013-02-14 10:48:00,
2013-02-14 05:49:00,30.0,22.1,29.74,WSW,254,0.0,0.0,72,0.00,,,0.00,0.00,VWS V14.01,2013-02-14 10:49:00,
2013-02-14 05:50:00,30.0,22.1,29.74,WNW,296,0.0,0.0,72,0.00,,,0.00,0.00,VWS V14.01,2013-02-14 10:50:00,
2013-02-14 05:51:00,30.0,22.1,29.74,WSW,248,0.0,0.0,72,0.00,,,0.00,0.00,VWS V14.01,2013-02-14 10:51:00,
2013-02-14 05:52:00,30.0,21.8,29.74,WNW,282,0.0,0.0,71,0.00,,,0.00,0.00,VWS V14.01,2013-02-14 10:52:00,
2013-02-14 05:53:00,30.1,22.2,29.74,SW,230,0.0,0.0,72,0.00,,,0.00,0.00,VWS V14.01,2013-02-14 10:53:00,
2013-02-14 05:54:00,30.0,21.8,29.74,WSW,239,0.0,0.0,71,0.00,,,0.00,0.00,VWS V14.01,2013-02-14 10:54:00,
2013-02-14 05:55:00,30.0,21.8,29.74,West,265,0.0,0.0,71,0.00,,,0.00,0.00,VWS V14.01,2013-02-14 10:55:00,
2013-02-14 05:56:00,30.0,21.8,29.74,WSW,256,0.0,0.0,71,0.00,,,0.00,0.00,VWS V14.01,2013-02-14 10:56:00,
2013-02-14 05:57:00,29.8,21.6,29.74,South,171,0.0,0.0,71,0.00,,,0.00,0.00,VWS V14.01,2013-02-14 10:57:00,
2013-02-14 05:58:00,29.8,21.6,29.74,WSW,250,0.0,0.0,71,0.00,,,0.00,0.00,VWS V14.01,2013-02-14 10:58:00,
2013-02-14 05:59:00,30.0,21.8,29.74,WSW,239,0.0,0.0,71,0.00,,,0.00,0.00,VWS V14.01,2013-02-14 10:59:00,
2013-02-14 06:00:00,29.8,21.6,29.74,SW,232,0.0,0.0,71,0.00,,,0.00,0.00,VWS V14.01,2013-02-14 11:00:00,
2013-02-14 06:01:00,29.8,21.6,29.74,WSW,247,0.0,0.0,71,0.00,,,0.00,0.00,VWS V14.01,2013-02-14 11:01:00,
2013-02-14 06:02:00,29.8,21.6,29.74,West,274,0.0,0.0,71,0.00,,,0.00,0.00,VWS V14.01,2013-02-14 11:02:00,
2013-02-14 06:03:00,29.8,21.6,29.74,SSW,195,0.0,0.0,71,0.00,,,0.00,0.00,VWS V14.01,2013-02-14 11:03:00,
2013-02-14 06:04:00,29.8,21.6,29.74,SSW,203,0.0,0.0,71,0.00,,,0.00,0.00,VWS V14.01,2013-02-14 11:04:00,
2013-02-14 06:05:00,29.7,21.8,29.74,WSW,257,0.0,0.0,72,0.00,,,0.00,0.00,VWS V14.01,2013-02-14 11:05:00,
2013-02-14 06:06:00,29.7,21.8,29.74,South,191,0.0,0.0,72,0.00,,,0.00,0.00,VWS V14.01,2013-02-14 11:06:00,
2013-02-14 06:07:00,29.7,21.8,29.74,WSW,248,0.0,0.0,72,0.00,,,0.00,0.00,VWS V14.01,2013-02-14 11:07:00,
2013-02-14 06:08:00,29.7,21.8,29.74,SW,233,0.0,0.0,72,0.00,,,0.00,0.00,VWS V14.01,2013-02-14 11:08:00,
2013-02-14 06:09:00,29.7,21.5,29.74,NW,313,0.0,0.0,71,0.00,,,0.00,0.00,VWS V14.01,2013-02-14 11:09:00,
2013-02-14 06:10:00,29.7,21.8,29.74,SW,236,0.0,0.0,72,0.00,,,0.00,0.00,VWS V14.01,2013-02-14 11:10:00,
2013-02-14 06:11:00,29.7,21.8,29.74,WSW,243,0.0,0.0,72,0.00,,,0.00,0.00,VWS V14.01,2013-02-14 11:11:00,
2013-02-14 06:12:00,29.7,21.5,29.74,SSE,167,0.0,0.0,71,0.00,,,0.00,0.00,VWS V14.01,2013-02-14 11:12:00,
2013-02-14 06:13:00,29.7,21.5,29.74,WNW,289,0.0,0.0,71,0.00,,,0.00,0.00,VWS V14.01,2013-02-14 11:13:00,
2013-02-14 06:14:00,29.7,21.5,29.74,SW,226,0.0,0.0,71,0.00,,,0.00,0.00,VWS V14.01,2013-02-14 11:14:00,
2013-02-14 06:15:00,29.7,21.8,29.74,SW,236,0.0,0.0,72,0.00,,,0.00,0.00,VWS V14.01,2013-02-14 11:15:00,
2013-02-14 06:16:00,29.7,21.8,29.75,West,270,0.0,0.0,72,0.00,,,0.00,0.00,VWS V14.01,2013-02-14 11:16:00,
2013-02-14 06:17:00,29.7,21.8,29.75,West,264,0.0,0.0,72,0.00,,,0.00,0.00,VWS V14.01,2013-02-14 11:17:00,
2013-02-14 06:18:00,29.5,21.6,29.75,SSW,193,0.0,0.0,72,0.00,,,0.00,0.00,VWS V14.01,2013-02-14 11:18:00,
2013-02-14 06:19:00,29.5,21.6,29.75,SSW,199,0.0,0.0,72,0.00,,,0.00,0.00,VWS V14.01,2013-02-14 11:19:00,
2013-02-14 06:20:00,29.5,21.6,29.75,South,184,0.0,0.0,72,0.00,,,0.00,0.00,VWS V14.01,2013-02-14 11:20:00,
2013-02-14 06:21:00,29.7,21.8,29.75,West,270,0.0,0.0,72,0.00,,,0.00,0.00,VWS V14.01,2013-02-14 11:21:00,
2013-02-14 06:22:00,29.5,21.6,29.75,WNW,285,0.0,0.0,72,0.00,,,0.00,0.00,VWS V14.01,2013-02-14 11:22:00,
2013-02-14 06:23:00,29.5,21.6,29.75,West,260,0.0,0.0,72,0.00,,,0.00,0.00,VWS V14.01,2013-02-14 11:23:00,
2013-02-14 06:24:00,29.5,21.6,29.75,SW,232,0.0,0.0,72,0.00,,,0.00,0.00,VWS V14.01,2013-02-14 11:24:00,
2013-02-14 06:25:00,29.5,21.6,29.75,South,182,0.0,0.0,72,0.00,,,0.00,0.00,VWS V14.01,2013-02-14 11:25:00,
2013-02-14 06:26:00,29.5,21.6,29.75,WSW,256,0.0,0.0,72,0.00,,,0.00,0.00,VWS V14.01,2013-02-14 11:26:00,
2013-02-14 06:27:00,29.5,21.6,29.75,SW,220,0.0,0.0,72,0.00,,,0.00,0.00,VWS V14.01,2013-02-14 11:27:00,
2013-02-14 06:28:00,29.5,21.6,29.75,West,271,0.0,0.0,72,0.00,,,0.00,0.00,VWS V14.01,2013-02-14 11:28:00,
2013-02-14 06:29:00,29.5,21.6,29.75,NW,308,0.0,0.0,72,0.00,,,0.00,0.00,VWS V14.01,2013-02-14 11:29:00,
2013-02-14 06:30:00,29.5,21.6,29.75,WSW,246,0.0,0.0,72,0.00,,,0.00,0.00,VWS V14.01,2013-02-14 11:30:00,
2013-02-14 06:31:00,29.5,21.6,29.75,SW,224,0.0,0.0,72,0.00,,,0.00,0.00,VWS V14.01,2013-02-14 11:31:00,
2013-02-14 06:32:00,29.5,21.6,29.75,West,263,0.0,0.0,72,0.00,,,0.00,0.00,VWS V14.01,2013-02-14 11:32:00,
2013-02-14 06:33:00,29.5,21.6,29.75,SW,223,0.0,0.0,72,0.00,,,0.00,0.00,VWS V14.01,2013-02-14 11:33:00,
2013-02-14 06:34:00,29.4,21.5,29.75,WSW,257,0.0,0.0,72,0.00,,,0.00,0.00,VWS V14.01,2013-02-14 11:34:00,
2013-02-14 06:35:00,29.4,21.5,29.75,WSW,257,0.0,0.0,72,0.00,,,0.00,0.00,VWS V14.01,2013-02-14 11:35:00,
2013-02-14 06:36:00,29.4,21.5,29.75,West,261,0.0,0.0,72,0.00,,,0.00,0.00,VWS V14.01,2013-02-14 11:36:00,
2013-02-14 06:37:00,29.5,21.6,29.75,West,263,0.0,0.0,72,0.00,,,0.00,0.00,VWS V14.01,2013-02-14 11:37:00,
2013-02-14 06:38:00,29.4,21.8,29.75,WSW,240,0.0,0.0,73,0.00,,,0.00,0.00,VWS V14.01,2013-02-14 11:38:00,
2013-02-14 06:39:00,29.4,21.8,29.75,WSW,240,0.0,0.0,73,0.00,,,0.00,0.00,VWS V14.01,2013-02-14 11:39:00,
2013-02-14 06:40:00,29.4,21.8,29.75,SW,230,0.0,0.0,73,0.00,,,0.00,0.00,VWS V14.01,2013-02-14 11:40:00,
2013-02-14 06:41:00,29.4,21.8,29.75,WSW,258,0.0,0.0,73,0.00,,,0.00,0.00,VWS V14.01,2013-02-14 11:41:00,
2013-02-14 06:42:00,29.4,21.8,29.75,West,260,0.0,0.0,73,0.00,,,0.00,0.00,VWS V14.01,2013-02-14 11:42:00,
2013-02-14 06:43:00,29.4,21.8,29.75,WSW,240,0.0,0.0,73,0.00,,,0.00,0.00,VWS V14.01,2013-02-14 11:43:00,
2013-02-14 06:44:00,29.3,21.7,29.75,West,267,0.0,0.0,73,0.00,,,0.00,0.00,VWS V14.01,2013-02-14 11:44:00,
2013-02-14 06:45:00,29.3,21.7,29.76,West,261,0.0,0.0,73,0.00,,,0.00,0.00,VWS V14.01,2013-02-14 11:45:00,
2013-02-14 06:46:00,29.3,21.7,29.76,SSW,210,0.0,0.0,73,0.00,,,0.00,0.00,VWS V14.01,2013-02-14 11:46:00,
2013-02-14 06:47:00,29.3,21.7,29.76,SW,219,0.0,0.0,73,0.00,,,0.00,0.00,VWS V14.01,2013-02-14 11:47:00,
2013-02-14 06:48:00,29.4,21.8,29.75,SSW,210,0.0,0.0,73,0.00,,,0.00,0.00,VWS V14.01,2013-02-14 11:48:00,
2013-02-14 06:49:00,29.3,21.7,29.76,West,270,0.0,0.0,73,0.00,,,0.00,0.00,VWS V14.01,2013-02-14 11:49:00,
2013-02-14 06:50:00,29.3,21.7,29.76,West,264,0.0,0.0,73,0.00,,,0.00,0.00,VWS V14.01,2013-02-14 11:50:00,
2013-02-14 06:51:00,29.3,21.7,29.76,WSW,258,0.0,0.0,73,0.00,,,0.00,0.00,VWS V14.01,2013-02-14 11:51:00,
2013-02-14 06:52:00,29.3,21.7,29.76,WSW,258,0.0,0.0,73,0.00,,,0.00,0.00,VWS V14.01,2013-02-14 11:52:00,
2013-02-14 06:53:00,29.1,21.5,29.76,SW,219,0.0,0.0,73,0.00,,,0.00,0.00,VWS V14.01,2013-02-14 11:53:00,
2013-02-14 06:54:00,29.3,21.7,29.76,West,270,0.0,0.0,73,0.00,,,0.00,0.00,VWS V14.01,2013-02-14 11:54:00,
2013-02-14 06:55:00,29.1,21.9,29.76,West,274,0.0,0.0,74,0.00,,,0.00,0.00,VWS V14.01,2013-02-14 11:55:00,
2013-02-14 06:56:00,29.1,21.9,29.76,WSW,246,0.0,0.0,74,0.00,,,0.00,0.00,VWS V14.01,2013-02-14 11:56:00,
2013-02-14 06:57:00,29.1,21.9,29.76,WSW,250,0.0,0.0,74,0.00,,,0.00,0.00,VWS V14.01,2013-02-14 11:57:00,
2013-02-14 06:58:00,29.1,21.9,29.76,WSW,241,0.0,0.0,74,0.00,,,0.00,0.00,VWS V14.01,2013-02-14 11:58:00,
2013-02-14 06:59:00,29.1,21.9,29.76,SW,232,0.0,0.0,74,0.00,,,0.00,0.00,VWS V14.01,2013-02-14 11:59:00,
2013-02-14 07:00:00,29.1,21.9,29.76,SW,224,0.0,0.0,74,0.00,,,0.00,0.00,VWS V14.01,2013-02-14 12:00:00,
2013-02-14 07:01:00,29.1,21.9,29.76,WSW,243,0.0,0.0,74,0.00,,,0.00,0.00,VWS V14.01,2013-02-14 12:01:00,
2013-02-14 07:02:00,29.1,21.9,29.76,WNW,287,0.0,0.0,74,0.00,,,0.00,0.00,VWS V14.01,2013-02-14 12:02:00,
2013-02-14 07:03:00,29.1,21.9,29.76,WSW,248,0.0,0.0,74,0.00,,,0.00,0.00,VWS V14.01,2013-02-14 12:03:00,
2013-02-14 07:04:00,29.1,21.9,29.76,WSW,246,0.0,0.0,74,0.00,,,0.00,0.00,VWS V14.01,2013-02-14 12:04:00,
2013-02-14 07:05:00,29.1,21.9,29.76,SW,224,0.0,0.0,74,0.00,,,0.00,0.00,VWS V14.01,2013-02-14 12:05:00,
2013-02-14 07:06:00,29.1,21.9,29.76,SW,222,0.0,0.0,74,0.00,,,0.00,0.00,VWS V14.01,2013-02-14 12:06:00,
2013-02-14 07:07:00,29.1,21.9,29.76,WSW,247,0.0,0.0,74,0.00,,,0.00,0.00,VWS V14.01,2013-02-14 12:07:00,
2013-02-14 07:08:00,29.1,21.9,29.76,WSW,253,0.0,0.0,74,0.00,,,0.00,0.00,VWS V14.01,2013-02-14 12:08:00,
2013-02-14 07:09:00,29.0,21.8,29.76,WNW,284,0.0,0.0,74,0.00,,,0.00,0.00,VWS V14.01,2013-02-14 12:09:00,
2013-02-14 07:10:00,29.0,21.8,29.76,WNW,284,0.0,0.0,74,0.00,,,0.00,0.00,VWS V14.01,2013-02-14 12:10:00,
2013-02-14 07:11:00,29.1,21.9,29.76,SW,222,0.0,0.0,74,0.00,,,0.00,0.00,VWS V14.01,2013-02-14 12:11:00,
2013-02-14 07:12:00,29.0,21.8,29.76,West,270,0.0,0.0,74,0.00,,,0.00,0.00,VWS V14.01,2013-02-14 12:12:00,
2013-02-14 07:13:00,29.0,21.8,29.76,West,270,0.0,0.0,74,0.00,,,0.00,5.00,VWS V14.01,2013-02-14 12:13:00,
2013-02-14 07:14:00,29.0,21.8,29.76,West,263,0.0,0.0,74,0.00,,,0.00,5.00,VWS V14.01,2013-02-14 12:14:00,
2013-02-14 07:15:00,29.0,21.8,29.77,WSW,244,0.0,0.0,74,0.00,,,0.00,5.00,VWS V14.01,2013-02-14 12:15:00,
2013-02-14 07:16:00,29.0,21.8,29.76,West,270,0.0,0.0,74,0.00,,,0.00,0.00,VWS V14.01,2013-02-14 12:16:00,
2013-02-14 07:17:00,29.0,22.1,29.77,WSW,248,0.0,0.0,75,0.00,,,0.00,9.00,VWS V14.01,2013-02-14 12:17:00,
2013-02-14 07:18:00,29.0,22.1,29.77,West,281,0.0,0.0,75,0.00,,,0.00,9.00,VWS V14.01,2013-02-14 12:18:00,
2013-02-14 07:19:00,29.0,22.1,29.77,West,281,0.0,0.0,75,0.00,,,0.00,9.00,VWS V14.01,2013-02-14 12:19:00,
2013-02-14 07:20:00,29.0,22.1,29.77,West,263,0.0,0.0,75,0.00,,,0.00,9.00,VWS V14.01,2013-02-14 12:20:00,
2013-02-14 07:21:00,29.0,22.1,29.77,West,263,0.0,0.0,75,0.00,,,0.00,18.00,VWS V14.01,2013-02-14 12:21:00,
2013-02-14 07:22:00,29.0,22.1,29.77,WSW,248,0.0,0.0,75,0.00,,,0.00,9.00,VWS V14.01,2013-02-14 12:22:00,
2013-02-14 07:23:00,29.0,22.1,29.77,West,275,0.0,0.0,75,0.00,,,0.00,18.00,VWS V14.01,2013-02-14 12:23:00,
2013-02-14 07:24:00,29.0,22.1,29.77,West,275,0.0,0.0,75,0.00,,,0.00,18.00,VWS V14.01,2013-02-14 12:24:00,
2013-02-14 07:25:00,29.1,22.2,29.77,WSW,257,0.0,0.0,75,0.00,,,0.00,23.00,VWS V14.01,2013-02-14 12:25:00,
2013-02-14 07:26:00,29.1,22.2,29.77,WSW,244,0.0,0.0,75,0.00,,,0.00,23.00,VWS V14.01,2013-02-14 12:26:00,
2013-02-14 07:27:00,29.1,22.2,29.77,WSW,247,0.0,0.0,75,0.00,,,0.00,23.00,VWS V14.01,2013-02-14 12:27:00,
2013-02-14 07:28:00,29.0,22.1,29.77,West,275,0.0,0.0,75,0.00,,,0.00,18.00,VWS V14.01,2013-02-14 12:28:00,
2013-02-14 07:29:00,29.1,22.2,29.77,WSW,241,0.0,0.0,75,0.00,,,0.00,32.00,VWS V14.01,2013-02-14 12:29:00,
2013-02-14 07:30:00,29.1,22.2,29.77,SW,230,0.0,0.0,75,0.00,,,0.00,32.00,VWS V14.01,2013-02-14 12:30:00,
2013-02-14 07:31:00,29.1,22.2,29.77,WSW,251,0.0,0.0,75,0.00,,,0.00,32.00,VWS V14.01,2013-02-14 12:31:00,
2013-02-14 07:32:00,29.1,22.2,29.77,SW,220,0.0,0.0,75,0.00,,,0.00,32.00,VWS V14.01,2013-02-14 12:32:00,
2013-02-14 07:33:00,29.1,22.2,29.77,NW,309,0.0,0.0,75,0.00,,,0.00,40.00,VWS V14.01,2013-02-14 12:33:00,
2013-02-14 07:34:00,29.1,22.2,29.77,WSW,241,0.0,0.0,75,0.00,,,0.00,32.00,VWS V14.01,2013-02-14 12:34:00,
2013-02-14 07:35:00,29.3,22.4,29.77,SW,224,0.0,0.0,75,0.00,,,0.00,40.00,VWS V14.01,2013-02-14 12:35:00,
2013-02-14 07:36:00,29.3,22.4,29.77,WSW,251,0.0,0.0,75,0.00,,,0.00,40.00,VWS V14.01,2013-02-14 12:36:00,
2013-02-14 07:37:00,29.3,22.4,29.77,SSW,195,0.0,0.0,75,0.00,,,0.00,40.00,VWS V14.01,2013-02-14 12:37:00,
2013-02-14 07:38:00,29.4,22.5,29.77,SW,234,0.0,0.0,75,0.00,,,0.00,49.00,VWS V14.01,2013-02-14 12:38:00,
2013-02-14 07:39:00,29.4,22.5,29.77,WSW,244,0.0,0.0,75,0.00,,,0.00,49.00,VWS V14.01,2013-02-14 12:39:00,
2013-02-14 07:40:00,29.3,22.4,29.77,SW,224,0.0,0.0,75,0.00,,,0.00,40.00,VWS V14.01,2013-02-14 12:40:00,
2013-02-14 07:41:00,29.4,22.5,29.77,SW,232,0.0,0.0,75,0.00,,,0.00,49.00,VWS V14.01,2013-02-14 12:41:00,
2013-02-14 07:42:00,29.4,22.5,29.77,SW,232,0.0,0.0,75,0.00,,,0.00,60.00,VWS V14.01,2013-02-14 12:42:00,
2013-02-14 07:43:00,29.5,22.6,29.77,West,277,0.0,0.0,75,0.00,,,0.00,70.00,VWS V14.01,2013-02-14 12:43:00,
2013-02-14 07:44:00,29.5,22.6,29.77,SSW,208,0.0,0.0,75,0.00,,,0.00,72.00,VWS V14.01,2013-02-14 12:44:00,
2013-02-14 07:45:00,29.5,22.6,29.78,West,267,0.0,0.0,75,0.00,,,0.00,74.00,VWS V14.01,2013-02-14 12:45:00,
2013-02-14 07:46:00,29.4,22.5,29.77,SW,232,0.0,0.0,75,0.00,,,0.00,49.00,VWS V14.01,2013-02-14 12:46:00,
2013-02-14 07:47:00,29.7,22.8,29.78,WSW,258,0.0,0.0,75,0.00,,,0.00,79.00,VWS V14.01,2013-02-14 12:47:00,
2013-02-14 07:48:00,29.7,22.8,29.78,WSW,258,0.0,0.0,75,0.00,,,0.00,83.00,VWS V14.01,2013-02-14 12:48:00,
2013-02-14 07:49:00,29.7,22.8,29.78,SSW,203,0.0,0.0,75,0.00,,,0.00,88.00,VWS V14.01,2013-02-14 12:49:00,
2013-02-14 07:50:00,29.7,22.8,29.78,West,260,0.0,0.0,75,0.00,,,0.00,90.00,VWS V14.01,2013-02-14 12:50:00,
2013-02-14 07:51:00,29.5,22.6,29.78,WSW,248,0.0,0.0,75,0.00,,,0.00,77.00,VWS V14.01,2013-02-14 12:51:00,
2013-02-14 07:52:00,29.8,22.9,29.78,West,271,0.0,0.0,75,0.00,,,0.00,95.00,VWS V14.01,2013-02-14 12:52:00,
2013-02-14 07:53:00,29.8,22.9,29.78,SW,217,0.0,0.0,75,0.00,,,0.00,100.00,VWS V14.01,2013-02-14 12:53:00,
2013-02-14 07:54:00,29.8,22.9,29.78,WSW,250,0.0,0.0,75,0.00,,,0.00,104.00,VWS V14.01,2013-02-14 12:54:00,
2013-02-14 07:55:00,30.0,23.0,29.78,WSW,250,0.0,0.0,75,0.00,,,0.00,107.00,VWS V14.01,2013-02-14 12:55:00,
2013-02-14 07:56:00,30.0,23.0,29.78,WSW,251,0.0,0.0,75,0.00,,,0.00,111.00,VWS V14.01,2013-02-14 12:56:00,
2013-02-14 07:57:00,29.8,22.9,29.78,West,271,0.0,0.0,75,0.00,,,0.00,95.00,VWS V14.01,2013-02-14 12:57:00,
2013-02-14 07:58:00,30.0,22.7,29.78,West,272,0.0,0.0,74,0.00,,,0.00,106.00,VWS V14.01,2013-02-14 12:58:00,
2013-02-14 07:59:00,30.0,22.7,29.78,SSW,213,0.0,0.0,74,0.00,,,0.00,99.00,VWS V14.01,2013-02-14 12:59:00,
2013-02-14 08:00:00,30.1,22.8,29.79,SSW,198,0.0,0.0,74,0.00,,,0.00,109.00,VWS V14.01,2013-02-14 13:00:00,
2013-02-14 08:01:00,30.1,23.1,29.79,West,260,0.0,0.0,75,0.00,,,0.00,109.00,VWS V14.01,2013-02-14 13:01:00,
2013-02-14 08:02:00,30.0,23.0,29.78,WSW,251,0.0,0.0,75,0.00,,,0.00,113.00,VWS V14.01,2013-02-14 13:02:00,
2013-02-14 08:03:00,30.3,23.3,29.79,West,281,0.0,0.0,75,0.00,,,0.00,114.00,VWS V14.01,2013-02-14 13:03:00,
2013-02-14 08:04:00,30.3,23.3,29.79,SW,219,0.0,0.0,75,0.00,,,0.00,93.00,VWS V14.01,2013-02-14 13:04:00,
2013-02-14 08:05:00,30.4,23.4,29.79,WSW,251,0.0,0.0,75,0.00,,,0.00,86.00,VWS V14.01,2013-02-14 13:05:00,
2013-02-14 08:06:00,30.4,23.1,29.79,SW,234,0.0,0.0,74,0.00,,,0.00,91.00,VWS V14.01,2013-02-14 13:06:00,
2013-02-14 08:07:00,30.4,23.1,29.79,South,175,0.0,0.0,74,0.00,,,0.00,123.00,VWS V14.01,2013-02-14 13:07:00,
2013-02-14 08:08:00,30.3,23.3,29.79,West,281,0.0,0.0,75,0.00,,,0.00,114.00,VWS V14.01,2013-02-14 13:08:00,
2013-02-14 08:09:00,30.6,23.6,29.79,SW,217,0.0,0.0,75,0.00,,,0.00,109.00,VWS V14.01,2013-02-14 13:09:00,
2013-02-14 08:10:00,30.7,23.7,29.79,SW,222,0.0,0.0,75,0.00,,,0.00,95.00,VWS V14.01,2013-02-14 13:10:00,
2013-02-14 08:11:00,30.7,23.7,29.79,West,272,0.0,0.0,75,0.00,,,0.00,97.00,VWS V14.01,2013-02-14 13:11:00,
2013-02-14 08:12:00,30.7,23.4,29.79,West,265,0.0,0.0,74,0.00,,,0.00,114.00,VWS V14.01,2013-02-14 13:12:00,
2013-02-14 08:13:00,30.6,23.6,29.79,West,265,0.0,0.0,75,0.00,,,0.00,120.00,VWS V14.01,2013-02-14 13:13:00,
2013-02-14 08:14:00,30.9,23.6,29.79,WSW,244,0.0,0.0,74,0.00,,,0.00,104.00,VWS V14.01,2013-02-14 13:14:00,
2013-02-14 08:15:00,30.9,23.6,29.80,SW,232,0.0,0.0,74,0.00,,,0.00,86.00,VWS V14.01,2013-02-14 13:15:00,
2013-02-14 08:16:00,30.9,23.6,29.80,SW,233,0.0,0.0,74,0.00,,,0.00,72.00,VWS V14.01,2013-02-14 13:16:00,
2013-02-14 08:17:00,31.0,23.4,29.80,WSW,246,0.0,0.0,73,0.00,,,0.00,106.00,VWS V14.01,2013-02-14 13:17:00,
2013-02-14 08:18:00,31.0,23.7,29.80,SSW,208,0.0,0.0,74,0.00,,,0.00,127.00,VWS V14.01,2013-02-14 13:18:00,
2013-02-14 08:19:00,30.9,23.6,29.79,WSW,244,0.0,0.0,74,0.00,,,0.00,104.00,VWS V14.01,2013-02-14 13:19:00,
2013-02-14 08:20:00,31.2,23.6,29.80,West,263,0.0,0.0,73,0.00,,,0.00,121.00,VWS V14.01,2013-02-14 13:20:00,
2013-02-14 08:21:00,31.2,23.6,29.80,West,265,0.0,0.0,73,0.00,,,0.00,114.00,VWS V14.01,2013-02-14 13:21:00,
2013-02-14 08:22:00,31.2,23.6,29.80,SSW,213,0.0,0.0,73,0.00,,,0.00,118.00,VWS V14.01,2013-02-14 13:22:00,
2013-02-14 08:23:00,31.2,23.6,29.80,WSW,247,0.0,0.0,73,0.00,,,0.00,157.00,VWS V14.01,2013-02-14 13:23:00,
2013-02-14 08:24:00,31.0,23.7,29.80,South,189,0.0,0.0,74,0.00,,,0.00,107.00,VWS V14.01,2013-02-14 13:24:00,
2013-02-14 08:25:00,31.2,23.6,29.80,WSW,241,0.0,0.0,73,0.00,,,0.00,132.00,VWS V14.01,2013-02-14 13:25:00,
2013-02-14 08:26:00,31.3,23.7,29.80,WSW,240,0.0,0.0,73,0.00,,,0.00,144.00,VWS V14.01,2013-02-14 13:26:00,
2013-02-14 08:27:00,31.3,23.3,29.80,SW,229,0.0,0.0,72,0.00,,,0.00,165.00,VWS V14.01,2013-02-14 13:27:00,
2013-02-14 08:28:00,31.3,23.7,29.80,WSW,258,0.0,0.0,73,0.00,,,0.00,199.00,VWS V14.01,2013-02-14 13:28:00,
2013-02-14 08:29:00,31.2,23.6,29.80,WSW,257,0.0,0.0,73,0.00,,,0.00,153.00,VWS V14.01,2013-02-14 13:29:00,
2013-02-14 08:30:00,31.3,23.3,29.80,West,265,0.0,0.0,72,0.00,,,0.00,157.00,VWS V14.01,2013-02-14 13:30:00,
2013-02-14 08:31:00,31.3,23.3,29.80,West,264,0.0,0.0,72,0.00,,,0.00,137.00,VWS V14.01,2013-02-14 13:31:00,
2013-02-14 08:32:00,31.3,23.3,29.80,West,265,0.0,0.0,72,0.00,,,0.00,118.00,VWS V14.01,2013-02-14 13:32:00,
2013-02-14 08:33:00,31.5,23.5,29.80,West,264,0.0,0.0,72,0.00,,,0.00,118.00,VWS V14.01,2013-02-14 13:33:00,
2013-02-14 08:34:00,31.5,23.5,29.80,West,264,0.0,0.0,72,0.00,,,0.00,118.00,VWS V14.01,2013-02-14 13:34:00,
2013-02-14 08:35:00,31.3,23.3,29.80,West,265,0.0,0.0,72,0.00,,,0.00,157.00,VWS V14.01,2013-02-14 13:35:00,
2013-02-14 08:36:00,31.6,24.0,29.80,SSE,158,0.0,0.0,73,0.00,,,0.00,72.00,VWS V14.01,2013-02-14 13:36:00,
2013-02-14 08:37:00,31.8,24.1,29.80,SSE,168,0.0,0.0,73,0.00,,,0.00,90.00,VWS V14.01,2013-02-14 13:37:00,
2013-02-14 08:38:00,31.8,24.1,29.80,West,281,0.0,0.0,73,0.00,,,0.00,111.00,VWS V14.01,2013-02-14 13:38:00,
2013-02-14 08:39:00,31.8,24.1,29.80,SSW,202,0.0,0.0,73,0.00,,,0.00,139.00,VWS V14.01,2013-02-14 13:39:00,
2013-02-14 08:40:00,31.5,23.5,29.80,SSE,158,0.0,0.0,72,0.00,,,0.00,106.00,VWS V14.01,2013-02-14 13:40:00,
2013-02-14 08:41:00,31.9,24.2,29.80,SSW,193,0.0,0.0,73,0.00,,,0.00,130.00,VWS V14.01,2013-02-14 13:41:00,
2013-02-14 08:42:00,32.1,24.4,29.80,SSW,198,0.0,0.0,73,0.00,,,0.00,130.00,VWS V14.01,2013-02-14 13:42:00,
2013-02-14 08:43:00,32.1,24.1,29.80,South,181,0.0,0.0,72,0.00,,,0.00,153.00,VWS V14.01,2013-02-14 13:43:00,
2013-02-14 08:44:00,32.1,24.1,29.80,South,184,0.0,0.0,72,0.00,,,0.00,111.00,VWS V14.01,2013-02-14 13:44:00,
2013-02-14 08:45:00,32.2,24.2,29.81,South,179,0.0,0.0,72,0.00,,,0.00,111.00,VWS V14.01,2013-02-14 13:45:00,
2013-02-14 08:46:00,31.9,24.2,29.80,SSW,193,0.0,0.0,73,0.00,,,0.00,130.00,VWS V14.01,2013-02-14 13:46:00,
2013-02-14 08:47:00,32.2,23.9,29.81,South,182,0.0,0.0,71,0.00,,,0.00,157.00,VWS V14.01,2013-02-14 13:47:00,
2013-02-14 08:48:00,32.2,23.9,29.81,SSW,196,0.0,0.0,71,0.00,,,0.00,201.00,VWS V14.01,2013-02-14 13:48:00,
2013-02-14 08:49:00,32.2,23.9,29.81,SE,144,0.0,0.0,71,0.00,,,0.00,230.00,VWS V14.01,2013-02-14 13:49:00,
2013-02-14 08:50:00,32.4,24.1,29.81,WNW,289,0.0,0.0,71,0.00,,,0.00,206.00,VWS V14.01,2013-02-14 13:50:00,
2013-02-14 08:51:00,32.4,24.1,29.81,WNW,285,0.0,0.0,71,0.00,,,0.00,204.00,VWS V14.01,2013-02-14 13:51:00,
2013-02-14 08:52:00,32.2,23.9,29.81,South,182,0.0,0.0,71,0.00,,,0.00,157.00,VWS V14.01,2013-02-14 13:52:00,
2013-02-14 08:53:00,32.4,24.1,29.81,SSW,205,0.0,0.0,71,0.00,,,0.00,209.00,VWS V14.01,2013-02-14 13:53:00,
2013-02-14 08:54:00,32.4,24.1,29.81,SSW,203,0.0,0.0,71,0.00,,,0.00,201.00,VWS V14.01,2013-02-14 13:54:00,
2013-02-14 08:55:00,32.4,24.1,29.81,South,186,0.0,0.0,71,0.00,,,0.00,174.00,VWS V14.01,2013-02-14 13:55:00,
2013-02-14 08:56:00,32.5,24.2,29.81,West,265,0.0,0.0,71,0.00,,,0.00,190.00,VWS V14.01,2013-02-14 13:56:00,
2013-02-14 08:57:00,32.4,24.1,29.81,South,169,0.0,0.0,71,0.00,,,0.00,209.00,VWS V14.01,2013-02-14 13:57:00,
2013-02-14 08:58:00,32.5,24.2,29.81,SSW,208,0.0,0.0,71,0.00,,,0.00,188.00,VWS V14.01,2013-02-14 13:58:00,
2013-02-14 08:59:00,32.5,24.2,29.81,West,261,0.0,0.0,71,0.00,,,0.00,195.00,VWS V14.01,2013-02-14 13:59:00,
2013-02-14 09:00:00,32.5,23.8,29.82,West,263,0.0,0.0,70,0.00,,,0.00,202.00,VWS V14.01,2013-02-14 14:00:00,
2013-02-14 09:01:00,32.7,24.4,29.82,West,263,0.0,0.0,71,0.00,,,0.00,157.00,VWS V14.01,2013-02-14 14:01:00,
2013-02-14 09:02:00,32.5,24.2,29.81,West,280,0.0,0.0,71,0.00,,,0.00,178.00,VWS V14.01,2013-02-14 14:02:00,
2013-02-14 09:03:00,32.8,24.5,29.82,WSW,241,0.0,0.0,71,0.00,,,0.00,204.00,VWS V14.01,2013-02-14 14:03:00,
2013-02-14 09:04:00,32.8,24.5,29.82,WSW,247,0.0,0.0,71,0.00,,,0.00,204.00,VWS V14.01,2013-02-14 14:04:00,
2013-02-14 09:05:00,32.8,24.1,29.82,WSW,253,0.0,0.0,70,0.00,,,0.00,296.00,VWS V14.01,2013-02-14 14:05:00,
2013-02-14 09:06:00,32.8,24.1,29.82,West,267,0.0,0.0,70,0.00,,,0.00,306.00,VWS V14.01,2013-02-14 14:06:00,
2013-02-14 09:07:00,32.7,24.4,29.82,WSW,251,0.0,0.0,71,0.00,,,0.00,162.00,VWS V14.01,2013-02-14 14:07:00,
2013-02-14 09:08:00,32.9,24.2,29.82,West,267,0.0,0.0,70,0.00,,,0.00,260.00,VWS V14.01,2013-02-14 14:08:00,
2013-02-14 09:09:00,32.9,24.2,29.82,West,267,0.0,0.0,70,0.00,,,0.00,260.00,VWS V14.01,2013-02-14 14:09:00,
2013-02-14 09:10:00,32.9,24.5,29.82,West,272,0.0,0.0,71,0.00,,,0.00,76.00,VWS V14.01,2013-02-14 14:10:00,
2013-02-14 09:11:00,32.9,24.2,29.82,SW,215,0.0,0.0,70,0.00,,,0.00,76.00,VWS V14.01,2013-02-14 14:11:00,
2013-02-14 09:12:00,32.8,24.1,29.82,West,267,0.0,0.0,70,0.00,,,0.00,267.00,VWS V14.01,2013-02-14 14:12:00,
2013-02-14 09:13:00,33.1,24.7,29.82,West,275,0.0,0.0,71,0.00,,,0.00,195.00,VWS V14.01,2013-02-14 14:13:00,
2013-02-14 09:14:00,33.1,24.7,29.82,WNW,287,0.0,0.0,71,0.00,,,0.00,222.00,VWS V14.01,2013-02-14 14:14:00,
2013-02-14 09:15:00,33.1,24.4,29.83,SSW,199,0.0,0.0,70,0.00,,,0.00,222.00,VWS V14.01,2013-02-14 14:15:00,
2013-02-14 09:16:00,33.2,24.5,29.83,SSE,165,0.0,0.0,70,0.00,,,0.00,222.00,VWS V14.01,2013-02-14 14:16:00,
2013-02-14 09:17:00,33.2,24.5,29.83,South,185,0.0,0.0,70,0.00,,,0.00,169.00,VWS V14.01,2013-02-14 14:17:00,
2013-02-14 09:18:00,33.1,24.7,29.82,West,275,0.0,0.0,71,0.00,,,0.00,195.00,VWS V14.01,2013-02-14 14:18:00,
2013-02-14 09:19:00,33.2,24.1,29.83,South,178,0.0,0.0,69,0.00,,,0.00,204.00,VWS V14.01,2013-02-14 14:19:00,
2013-02-14 09:20:00,33.2,24.5,29.83,South,185,0.0,0.0,70,0.00,,,0.00,222.00,VWS V14.01,2013-02-14 14:20:00,
2013-02-14 09:21:00,33.2,24.1,29.83,WSW,243,0.0,0.0,69,0.00,,,0.00,255.00,VWS V14.01,2013-02-14 14:21:00,
2013-02-14 09:22:00,33.2,24.1,29.83,SW,229,0.0,0.0,69,0.00,,,0.00,234.00,VWS V14.01,2013-02-14 14:22:00,
2013-02-14 09:23:00,33.2,24.5,29.83,South,169,0.0,0.0,70,0.00,,,0.00,169.00,VWS V14.01,2013-02-14 14:23:00,
2013-02-14 09:24:00,33.4,24.3,29.83,South,178,0.0,0.0,69,0.00,,,0.00,222.00,VWS V14.01,2013-02-14 14:24:00,
2013-02-14 09:27:00,33.5,24.8,29.83,SSE,164,0.0,0.0,70,0.00,,,0.00,238.00,VWS V14.01,2013-02-14 14:27:00,
2013-02-14 09:28:00,33.2,24.1,29.83,SSE,157,0.0,0.0,69,0.00,,,0.00,234.00,VWS V14.01,2013-02-14 14:28:00,
2013-02-14 09:29:00,33.7,25.0,29.83,SSE,162,0.0,0.0,70,0.00,,,0.00,158.00,VWS V14.01,2013-02-14 14:29:00,
2013-02-14 09:30:00,33.8,25.1,29.83,SW,229,0.0,0.0,70,0.00,,,0.00,158.00,VWS V14.01,2013-02-14 14:30:00,
2013-02-14 09:31:00,33.8,25.1,29.83,SSE,157,0.0,0.0,70,0.00,,,0.00,178.00,VWS V14.01,2013-02-14 14:31:00,
2013-02-14 09:32:00,33.8,24.7,29.83,SSW,210,0.0,0.0,69,0.00,,,0.00,178.00,VWS V14.01,2013-02-14 14:32:00,
2013-02-14 09:33:00,33.8,24.7,29.83,ESE,103,0.0,0.0,69,0.00,,,0.00,287.00,VWS V14.01,2013-02-14 14:33:00,
2013-02-14 09:34:00,33.7,25.0,29.83,SSE,162,0.0,0.0,70,0.00,,,0.00,158.00,VWS V14.01,2013-02-14 14:34:00,
2013-02-14 09:35:00,34.0,24.9,29.83,West,275,0.0,0.0,69,0.00,,,0.00,324.00,VWS V14.01,2013-02-14 14:35:00,
2013-02-14 09:36:00,34.1,25.0,29.83,West,274,0.0,0.0,69,0.00,,,0.00,350.00,VWS V14.01,2013-02-14 14:36:00,
2013-02-14 09:37:00,34.1,25.0,29.83,ESE,102,0.0,0.0,69,0.00,,,0.00,350.00,VWS V14.01,2013-02-14 14:37:00,
2013-02-14 09:38:00,34.1,25.0,29.83,WSW,246,0.0,0.0,69,0.00,,,0.00,350.00,VWS V14.01,2013-02-14 14:38:00,
2013-02-14 09:39:00,34.0,25.3,29.83,WNW,285,0.0,0.0,70,0.00,,,0.00,292.00,VWS V14.01,2013-02-14 14:39:00,
2013-02-14 09:40:00,34.3,25.2,29.83,WSW,246,0.0,0.0,69,0.00,,,0.00,208.00,VWS V14.01,2013-02-14 14:40:00,
2013-02-14 09:41:00,34.3,24.9,29.83,West,271,0.0,0.0,68,0.00,,,0.00,208.00,VWS V14.01,2013-02-14 14:41:00,
2013-02-14 09:42:00,34.3,24.9,29.83,WSW,253,0.0,0.0,68,0.00,,,0.00,208.00,VWS V14.01,2013-02-14 14:42:00,
2013-02-14 09:43:00,34.3,24.9,29.83,WSW,253,0.0,0.0,68,0.00,,,0.00,211.00,VWS V14.01,2013-02-14 14:43:00,
2013-02-14 09:44:00,34.3,25.2,29.83,West,268,0.0,0.0,69,0.00,,,0.00,208.00,VWS V14.01,2013-02-14 14:44:00,
2013-02-14 09:45:00,34.1,24.7,29.82,WSW,251,0.0,0.0,68,0.00,,,0.00,134.00,VWS V14.01,2013-02-14 14:45:00,
2013-02-14 09:46:00,34.1,24.7,29.82,West,277,0.0,0.0,68,0.00,,,0.00,162.00,VWS V14.01,2013-02-14 14:46:00,
2013-02-14 09:47:00,34.1,24.7,29.82,West,272,0.0,0.0,68,0.00,,,0.00,162.00,VWS V14.01,2013-02-14 14:47:00,
2013-02-14 09:48:00,34.3,24.9,29.82,SW,215,0.0,0.0,68,0.00,,,0.00,162.00,VWS V14.01,2013-02-14 14:48:00,
2013-02-14 09:49:00,34.4,25.3,29.82,SSW,203,0.0,0.0,69,0.00,,,0.00,371.00,VWS V14.01,2013-02-14 14:49:00,
2013-02-14 09:50:00,34.1,24.7,29.82,WSW,251,0.0,0.0,68,0.00,,,0.00,134.00,VWS V14.01,2013-02-14 14:50:00,
2013-02-14 09:51:00,34.4,25.0,29.82,West,260,0.0,0.0,68,0.00,,,0.00,364.00,VWS V14.01,2013-02-14 14:51:00,
2013-02-14 09:52:00,34.4,25.0,29.82,West,264,0.0,0.0,68,0.00,,,0.00,340.00,VWS V14.01,2013-02-14 14:52:00,
2013-02-14 09:53:00,34.6,25.1,29.82,SSE,164,0.0,0.0,68,0.00,,,0.00,340.00,VWS V14.01,2013-02-14 14:53:00,
2013-02-14 09:54:00,34.6,25.1,29.82,SE,134,0.0,0.0,68,0.00,,,0.00,269.00,VWS V14.01,2013-02-14 14:54:00,
2013-02-14 09:55:00,34.4,25.0,29.82,West,261,0.0,0.0,68,0.00,,,0.00,371.00,VWS V14.01,2013-02-14 14:55:00,
2013-02-14 09:56:00,34.4,24.6,29.82,South,184,0.0,0.0,67,0.00,,,0.00,333.00,VWS V14.01,2013-02-14 14:56:00,
2013-02-14 09:57:00,34.4,24.6,29.82,SSW,208,0.0,0.0,67,0.00,,,0.00,343.00,VWS V14.01,2013-02-14 14:57:00,
2013-02-14 09:58:00,34.6,25.1,29.82,SSW,196,0.0,0.0,68,0.00,,,0.00,315.00,VWS V14.01,2013-02-14 14:58:00,
2013-02-14 09:59:00,34.6,25.1,29.82,SSW,212,0.0,0.0,68,0.00,,,0.00,315.00,VWS V14.01,2013-02-14 14:59:00,
2013-02-14 10:00:00,34.6,24.8,29.82,SSW,195,0.0,0.0,67,0.00,,,0.00,283.00,VWS V14.01,2013-02-14 15:00:00,
2013-02-14 10:01:00,34.6,24.8,29.82,South,191,0.0,0.0,67,0.00,,,0.00,306.00,VWS V14.01,2013-02-14 15:01:00,
2013-02-14 10:02:00,34.4,24.6,29.82,South,181,0.0,0.0,67,0.00,,,0.00,278.00,VWS V14.01,2013-02-14 15:02:00,
2013-02-14 10:03:00,34.4,24.6,29.82,SE,137,0.0,0.0,67,0.00,,,0.00,278.00,VWS V14.01,2013-02-14 15:03:00,
2013-02-14 10:04:00,34.4,24.6,29.82,South,176,0.0,0.0,67,0.00,,,0.00,218.00,VWS V14.01,2013-02-14 15:04:00,
2013-02-14 10:05:00,34.6,24.8,29.82,SSE,160,0.0,0.0,67,0.00,,,0.00,333.00,VWS V14.01,2013-02-14 15:05:00,
2013-02-14 10:06:00,34.3,24.5,29.82,SSE,168,0.0,0.0,67,0.00,,,0.00,223.00,VWS V14.01,2013-02-14 15:06:00,
2013-02-14 10:07:00,34.1,24.3,29.82,South,176,0.0,0.0,67,0.00,,,0.00,246.00,VWS V14.01,2013-02-14 15:07:00,
2013-02-14 10:08:00,34.1,24.0,29.82,SSW,196,0.0,0.0,66,0.00,,,0.00,227.00,VWS V14.01,2013-02-14 15:08:00,
2013-02-14 10:09:00,34.0,24.2,29.82,South,182,0.0,0.0,67,0.00,,,0.00,368.00,VWS V14.01,2013-02-14 15:09:00,
2013-02-14 10:10:00,34.3,24.5,29.82,SSE,160,0.0,0.0,67,0.00,,,0.00,215.00,VWS V14.01,2013-02-14 15:10:00,
2013-02-14 10:11:00,33.8,24.0,29.82,South,175,0.0,0.0,67,0.00,,,0.00,368.00,VWS V14.01,2013-02-14 15:11:00,
2013-02-14 10:12:00,33.8,24.0,29.82,SSE,157,0.0,0.0,67,0.00,,,0.00,368.00,VWS V14.01,2013-02-14 15:12:00,
2013-02-14 10:13:00,34.0,24.2,29.82,SSE,158,0.0,0.0,67,0.00,,,0.00,355.00,VWS V14.01,2013-02-14 15:13:00,
2013-02-14 10:14:00,34.0,24.6,29.82,SE,141,0.0,0.0,68,0.00,,,0.00,322.00,VWS V14.01,2013-02-14 15:14:00,
2013-02-14 10:15:00,34.0,24.2,29.83,SSE,150,0.0,0.0,67,0.00,,,0.00,278.00,VWS V14.01,2013-02-14 15:15:00,
2013-02-14 10:16:00,33.8,24.0,29.82,South,175,0.0,0.0,67,0.00,,,0.00,368.00,VWS V14.01,2013-02-14 15:16:00,
2013-02-14 10:17:00,34.0,24.2,29.83,SSW,196,0.0,0.0,67,0.00,,,0.00,313.00,VWS V14.01,2013-02-14 15:17:00,
2013-02-14 10:18:00,34.1,24.7,29.83,South,175,0.0,0.0,68,0.00,,,0.00,405.00,VWS V14.01,2013-02-14 15:18:00,
2013-02-14 10:19:00,34.1,24.7,29.83,South,186,0.0,0.0,68,0.00,,,0.00,387.00,VWS V14.01,2013-02-14 15:19:00,
2013-02-14 10:20:00,34.3,24.9,29.83,SSE,155,0.0,0.0,68,0.00,,,0.00,387.00,VWS V14.01,2013-02-14 15:20:00,
2013-02-14 10:21:00,34.4,24.6,29.83,SE,128,0.0,0.0,67,0.00,,,0.00,387.00,VWS V14.01,2013-02-14 15:21:00,
2013-02-14 10:22:00,34.0,24.2,29.83,SSW,196,0.0,0.0,67,0.00,,,0.00,313.00,VWS V14.01,2013-02-14 15:22:00,
2013-02-14 10:23:00,34.7,24.9,29.83,WSW,244,0.0,0.0,67,0.00,,,0.00,387.00,VWS V14.01,2013-02-14 15:23:00,
2013-02-14 10:24:00,34.7,24.9,29.83,WSW,243,0.0,0.0,67,0.00,,,0.00,387.00,VWS V14.01,2013-02-14 15:24:00,
2013-02-14 10:25:00,34.9,24.7,29.83,WSW,239,0.0,0.0,66,0.00,,,0.00,343.00,VWS V14.01,2013-02-14 15:25:00,
2013-02-14 10:26:00,34.9,24.7,29.83,SW,224,0.0,0.0,66,0.00,,,0.00,294.00,VWS V14.01,2013-02-14 15:26:00,
2013-02-14 10:27:00,34.6,24.8,29.83,South,176,0.0,0.0,67,0.00,,,0.00,387.00,VWS V14.01,2013-02-14 15:27:00,
2013-02-14 10:28:00,35.0,24.4,29.83,SW,223,0.0,0.0,65,0.00,,,0.00,222.00,VWS V14.01,2013-02-14 15:28:00,
2013-02-14 10:29:00,35.2,24.6,29.83,SW,229,0.0,0.0,65,0.00,,,0.00,299.00,VWS V14.01,2013-02-14 15:29:00,
2013-02-14 10:30:00,35.2,24.6,29.82,SW,234,0.0,0.0,65,0.00,,,0.00,267.00,VWS V14.01,2013-02-14 15:30:00,
2013-02-14 10:31:00,35.3,24.7,29.82,West,278,0.0,0.0,65,0.00,,,0.00,313.00,VWS V14.01,2013-02-14 15:31:00,
2013-02-14 10:32:00,35.0,24.4,29.83,WSW,251,0.0,0.0,65,0.00,,,0.00,294.00,VWS V14.01,2013-02-14 15:32:00,
2013-02-14 10:33:00,35.5,24.9,29.82,SSE,160,0.0,0.0,65,0.00,,,0.00,401.00,VWS V14.01,2013-02-14 15:33:00,
2013-02-14 10:34:00,35.6,25.4,29.82,South,172,0.0,0.0,66,0.00,,,0.00,370.00,VWS V14.01,2013-02-14 15:34:00,
2013-02-14 10:35:00,35.8,25.2,29.82,SW,215,0.0,0.0,65,0.00,,,0.00,384.00,VWS V14.01,2013-02-14 15:35:00,
2013-02-14 10:36:00,35.9,25.3,29.82,SSW,209,0.0,0.0,65,0.00,,,0.00,389.00,VWS V14.01,2013-02-14 15:36:00,
2013-02-14 10:37:00,36.0,25.4,29.82,WSW,248,0.0,0.0,65,0.00,,,0.00,389.00,VWS V14.01,2013-02-14 15:37:00,
2013-02-14 10:38:00,35.5,24.9,29.82,SSE,160,0.0,0.0,65,0.00,,,0.00,401.00,VWS V14.01,2013-02-14 15:38:00,
2013-02-14 10:39:00,36.2,25.2,29.82,SSW,202,0.0,0.0,64,0.00,,,0.00,398.00,VWS V14.01,2013-02-14 15:39:00,
2013-02-14 10:40:00,36.3,24.9,29.82,South,186,0.0,0.0,63,0.00,,,0.00,320.00,VWS V14.01,2013-02-14 15:40:00,
2013-02-14 10:41:00,36.3,24.9,29.82,South,188,0.0,0.0,63,0.00,,,0.00,320.00,VWS V14.01,2013-02-14 15:41:00,
2013-02-14 10:42:00,36.3,24.5,29.82,SSW,193,0.0,0.0,62,0.00,,,0.00,391.00,VWS V14.01,2013-02-14 15:42:00,
2013-02-14 10:43:00,36.2,25.2,29.82,WSW,258,0.0,0.0,64,0.00,,,0.00,398.00,VWS V14.01,2013-02-14 15:43:00,
2013-02-14 10:44:00,36.2,24.5,29.82,South,181,0.0,0.0,62,0.00,,,0.00,398.00,VWS V14.01,2013-02-14 15:44:00,
2013-02-14 10:45:00,36.0,23.9,29.83,SSW,198,0.0,0.0,61,0.00,,,0.00,398.00,VWS V14.01,2013-02-14 15:45:00,
2013-02-14 10:46:00,36.0,24.3,29.83,SSE,160,0.0,0.0,62,0.00,,,0.00,398.00,VWS V14.01,2013-02-14 15:46:00,
2013-02-14 10:47:00,36.2,24.8,29.83,SSE,168,0.0,0.0,63,0.00,,,0.00,401.00,VWS V14.01,2013-02-14 15:47:00,
2013-02-14 10:48:00,36.3,25.3,29.83,SSE,164,0.0,0.0,64,0.00,,,0.00,410.00,VWS V14.01,2013-02-14 15:48:00,
2013-02-14 10:49:00,36.2,24.5,29.82,South,181,0.0,0.0,62,0.00,,,0.00,398.00,VWS V14.01,2013-02-14 15:49:00,
2013-02-14 10:50:00,36.2,24.5,29.83,South,169,0.0,0.0,62,0.00,,,0.00,443.00,VWS V14.01,2013-02-14 15:50:00,
2013-02-14 10:51:00,36.2,24.5,29.83,SSE,162,0.0,0.0,62,0.00,,,0.00,424.00,VWS V14.01,2013-02-14 15:51:00,
2013-02-14 10:52:00,36.0,23.9,29.83,SSE,151,0.0,0.0,61,0.00,,,0.00,422.00,VWS V14.01,2013-02-14 15:52:00,
2013-02-14 10:53:00,36.2,24.8,29.83,SSW,193,0.0,0.0,63,0.00,,,0.00,424.00,VWS V14.01,2013-02-14 15:53:00,
2013-02-14 10:54:00,36.3,24.9,29.83,SSE,165,0.0,0.0,63,0.00,,,0.00,410.00,VWS V14.01,2013-02-14 15:54:00,
2013-02-14 10:55:00,36.2,24.8,29.83,South,188,0.0,0.0,63,0.00,,,0.00,428.00,VWS V14.01,2013-02-14 15:55:00,
2013-02-14 10:56:00,36.3,24.9,29.83,SSE,152,0.0,0.0,63,0.00,,,0.00,435.00,VWS V14.01,2013-02-14 15:56:00,
2013-02-14 10:57:00,36.5,25.5,29.83,SE,140,0.0,0.0,64,0.00,,,0.00,429.00,VWS V14.01,2013-02-14 15:57:00,
2013-02-14 10:58:00,36.6,25.6,29.83,SSE,167,0.0,0.0,64,0.00,,,0.00,435.00,VWS V14.01,2013-02-14 15:58:00,
2013-02-14 10:59:00,36.2,24.8,29.83,SSE,167,0.0,0.0,63,0.00,,,0.00,431.00,VWS V14.01,2013-02-14 15:59:00,
2013-02-14 11:00:00,36.6,24.8,29.82,South,184,0.0,0.0,62,0.00,,,0.00,428.00,VWS V14.01,2013-02-14 16:00:00,
2013-02-14 11:01:00,36.8,25.0,29.82,SE,128,0.0,0.0,62,0.00,,,0.00,421.00,VWS V14.01,2013-02-14 16:01:00,
2013-02-14 11:02:00,36.8,25.0,29.82,SSE,160,0.0,0.0,62,0.00,,,0.00,424.00,VWS V14.01,2013-02-14 16:02:00,
2013-02-14 11:03:00,36.8,25.0,29.82,North,0,0.0,0.0,62,0.00,,,0.00,416.00,VWS V14.01,2013-02-14 16:03:00,
2013-02-14 11:04:00,36.9,25.5,29.82,South,172,0.0,0.0,63,0.00,,,0.00,424.00,VWS V14.01,2013-02-14 16:04:00,
2013-02-14 11:05:00,36.6,24.8,29.82,South,184,0.0,0.0,62,0.00,,,0.00,428.00,VWS V14.01,2013-02-14 16:05:00,
2013-02-14 11:06:00,36.9,24.7,29.82,SE,126,0.0,0.0,61,0.00,,,0.00,419.00,VWS V14.01,2013-02-14 16:06:00,
2013-02-14 11:07:00,36.8,25.0,29.82,SE,137,0.0,0.0,62,0.00,,,0.00,413.00,VWS V14.01,2013-02-14 16:07:00,
2013-02-14 11:08:00,36.8,24.6,29.82,SE,131,0.0,0.0,61,0.00,,,0.00,415.00,VWS V14.01,2013-02-14 16:08:00,
2013-02-14 11:09:00,36.8,25.0,29.82,South,174,0.0,0.0,62,0.00,,,0.00,419.00,VWS V14.01,2013-02-14 16:09:00,
2013-02-14 11:10:00,36.9,25.5,29.82,South,189,0.0,0.0,63,0.00,,,0.00,419.00,VWS V14.01,2013-02-14 16:10:00,
2013-02-14 11:11:00,37.2,26.2,29.82,West,267,0.0,0.0,64,0.00,,,0.00,422.00,VWS V14.01,2013-02-14 16:11:00,
2013-02-14 11:12:00,36.8,25.0,29.82,SE,137,0.0,0.0,62,0.00,,,0.00,413.00,VWS V14.01,2013-02-14 16:12:00,
2013-02-14 11:13:00,37.6,25.8,29.82,SSE,151,0.0,0.0,62,0.00,,,0.00,422.00,VWS V14.01,2013-02-14 16:13:00,
2013-02-14 11:14:00,37.6,25.4,29.82,South,184,0.0,0.0,61,0.00,,,0.00,422.00,VWS V14.01,2013-02-14 16:14:00,
2013-02-14 11:15:00,37.6,25.0,29.82,SSE,164,0.0,0.0,60,0.00,,,0.00,410.00,VWS V14.01,2013-02-14 16:15:00,
2013-02-14 11:16:00,37.8,25.2,29.82,West,278,0.0,0.0,60,0.00,,,0.00,429.00,VWS V14.01,2013-02-14 16:16:00,
2013-02-14 11:17:00,37.3,25.1,29.82,SW,236,0.0,0.0,61,0.00,,,0.00,426.00,VWS V14.01,2013-02-14 16:17:00,
2013-02-14 11:34:00,38.5,25.4,29.82,South,186,0.0,0.0,59,0.00,,,0.00,429.00,VWS V14.01,2013-02-14 16:34:00,
2013-02-14 11:40:00,38.6,25.5,29.82,SSE,148,0.0,0.0,59,0.00,,,0.00,419.00,VWS V14.01,2013-02-14 16:40:00,
2013-02-14 11:45:00,38.6,26.7,29.82,SSE,150,0.0,0.0,62,0.00,,,0.00,435.00,VWS V14.01,2013-02-14 16:45:00,
2013-02-14 11:50:00,38.9,26.2,29.81,SSW,195,0.0,0.0,60,0.00,,,0.00,424.00,VWS V14.01,2013-02-14 16:50:00,
2013-02-14 11:56:00,39.5,26.0,29.81,ESE,104,0.0,0.0,58,0.00,,,0.00,421.00,VWS V14.01,2013-02-14 16:56:00,
2013-02-14 12:01:00,39.9,25.9,29.81,SSE,167,0.0,0.0,57,0.00,,,0.00,417.00,VWS V14.01,2013-02-14 17:01:00,
2013-02-14 12:07:00,39.8,25.8,29.80,SSE,147,0.0,0.0,57,0.00,,,0.00,412.00,VWS V14.01,2013-02-14 17:07:00,
2013-02-14 12:12:00,40.2,26.2,29.80,South,171,0.0,0.0,57,0.00,,,0.00,417.00,VWS V14.01,2013-02-14 17:12:00,
2013-02-14 12:17:00,40.9,26.9,29.80,SW,222,0.0,0.0,57,0.00,,,0.00,415.00,VWS V14.01,2013-02-14 17:17:00,
2013-02-14 12:23:00,41.1,25.7,29.79,SSW,193,0.0,0.0,54,0.00,,,0.00,410.00,VWS V14.01,2013-02-14 17:23:00,
2013-02-14 12:29:00,41.1,26.6,29.79,South,189,0.0,0.0,56,0.00,,,0.00,422.00,VWS V14.01,2013-02-14 17:29:00,
2013-02-14 12:35:00,41.5,26.5,29.78,SSE,165,0.0,0.0,55,0.00,,,0.00,415.00,VWS V14.01,2013-02-14 17:35:00,
2013-02-14 12:41:00,41.9,26.9,29.78,South,178,0.0,0.0,55,0.00,,,0.00,415.00,VWS V14.01,2013-02-14 17:41:00,
2013-02-14 12:46:00,42.2,26.8,29.78,South,171,0.0,0.0,54,0.00,,,0.00,421.00,VWS V14.01,2013-02-14 17:46:00,
2013-02-14 12:52:00,42.2,26.3,29.78,SE,136,0.0,0.0,53,0.00,,,0.00,419.00,VWS V14.01,2013-02-14 17:52:00,
2013-02-14 12:57:00,42.1,26.2,29.78,SSE,167,0.0,0.0,53,0.00,,,0.00,415.00,VWS V14.01,2013-02-14 17:57:00,
2013-02-14 13:03:00,43.3,26.9,29.78,ESE,119,0.0,0.0,52,0.00,,,0.00,424.00,VWS V14.01,2013-02-14 18:03:00,
2013-02-14 13:09:00,43.3,26.4,29.77,SSE,151,0.0,0.0,51,0.00,,,0.00,424.00,VWS V14.01,2013-02-14 18:09:00,
2013-02-14 13:14:00,43.2,26.3,29.77,SE,145,0.0,0.0,51,0.00,,,0.00,429.00,VWS V14.01,2013-02-14 18:14:00,
2013-02-14 13:20:00,43.3,26.4,29.76,SE,144,0.0,0.0,51,0.00,,,0.00,428.00,VWS V14.01,2013-02-14 18:20:00,
2013-02-14 13:25:00,44.3,26.9,29.76,SE,144,0.0,0.0,50,0.00,,,0.00,422.00,VWS V14.01,2013-02-14 18:25:00,
2013-02-14 13:31:00,44.1,26.2,29.76,SE,141,0.0,0.0,49,0.00,,,0.00,415.00,VWS V14.01,2013-02-14 18:31:00,
2013-02-14 13:36:00,43.6,26.2,29.76,South,171,0.0,0.0,50,0.00,,,0.00,422.00,VWS V14.01,2013-02-14 18:36:00,
2013-02-14 13:41:00,43.8,25.9,29.76,SE,138,0.0,0.0,49,0.00,,,0.00,417.00,VWS V14.01,2013-02-14 18:41:00,
2013-02-14 13:47:00,44.1,25.7,29.76,SSE,157,0.0,0.0,48,0.00,,,0.00,428.00,VWS V14.01,2013-02-14 18:47:00,
2013-02-14 13:52:00,44.2,25.3,29.75,SSE,158,0.0,0.0,47,0.00,,,0.00,421.00,VWS V14.01,2013-02-14 18:52:00,
2013-02-14 13:58:00,45.1,25.6,29.75,South,186,0.0,0.0,46,0.00,,,0.00,417.00,VWS V14.01,2013-02-14 18:58:00,
2013-02-14 14:03:00,46.0,25.9,29.75,SSE,162,0.0,0.0,45,0.00,,,0.00,415.00,VWS V14.01,2013-02-14 19:03:00,
2013-02-14 14:09:00,46.2,24.4,29.74,SW,232,0.0,0.0,42,0.00,,,0.00,422.00,VWS V14.01,2013-02-14 19:09:00,
2013-02-14 14:14:00,46.5,25.2,29.74,SSW,195,0.0,0.0,43,0.00,,,0.00,412.00,VWS V14.01,2013-02-14 19:14:00,
2013-02-14 14:20:00,46.7,24.3,29.74,SSE,160,0.0,0.0,41,0.00,,,0.00,424.00,VWS V14.01,2013-02-14 19:20:00,
2013-02-14 14:26:00,46.4,22.8,29.74,South,171,0.0,0.0,39,0.00,,,0.00,449.00,VWS V14.01,2013-02-14 19:26:00,
2013-02-14 14:31:00,46.2,22.6,29.74,SSE,160,0.0,0.0,39,0.00,,,0.00,422.00,VWS V14.01,2013-02-14 19:31:00,
2013-02-14 14:36:00,46.5,23.5,29.74,SE,145,0.0,0.0,40,0.00,,,0.00,426.00,VWS V14.01,2013-02-14 19:36:00,
2013-02-14 14:41:00,46.5,22.9,29.74,SSE,155,0.0,0.0,39,0.00,,,0.00,421.00,VWS V14.01,2013-02-14 19:41:00,
2013-02-14 14:47:00,46.7,22.5,29.74,SSE,150,0.0,0.0,38,0.00,,,0.00,440.00,VWS V14.01,2013-02-14 19:47:00,
2013-02-14 14:52:00,46.8,22.5,29.73,SSE,161,0.0,0.0,38,0.00,,,0.00,433.00,VWS V14.01,2013-02-14 19:52:00,
2013-02-14 14:57:00,47.0,22.7,29.73,South,186,0.0,0.0,38,0.00,,,0.00,417.00,VWS V14.01,2013-02-14 19:57:00,
2013-02-14 15:02:00,47.6,23.3,29.73,South,179,0.0,0.0,38,0.00,,,0.00,412.00,VWS V14.01,2013-02-14 20:02:00,
2013-02-14 15:07:00,47.9,22.9,29.72,SSE,162,0.0,0.0,37,0.00,,,0.00,419.00,VWS V14.01,2013-02-14 20:07:00,
2013-02-14 15:13:00,47.6,22.6,29.72,SSE,168,0.0,0.0,37,0.00,,,0.00,408.00,VWS V14.01,2013-02-14 20:13:00,
2013-02-14 15:18:00,47.1,22.8,29.72,SSE,161,0.0,0.0,38,0.00,,,0.00,413.00,VWS V14.01,2013-02-14 20:18:00,
2013-02-14 15:24:00,47.4,23.1,29.72,SSW,212,0.0,0.0,38,0.00,,,0.00,403.00,VWS V14.01,2013-02-14 20:24:00,
2013-02-14 15:30:00,48.3,23.3,29.72,South,172,0.0,0.0,37,0.00,,,0.00,391.00,VWS V14.01,2013-02-14 20:30:00,
2013-02-14 15:35:00,48.3,23.3,29.72,South,191,0.0,0.0,37,0.00,,,0.00,377.00,VWS V14.01,2013-02-14 20:35:00,
2013-02-14 15:41:00,48.2,22.5,29.72,SSE,168,0.0,0.0,36,0.00,,,0.00,373.00,VWS V14.01,2013-02-14 20:41:00,
2013-02-14 15:46:00,47.9,21.6,29.72,SE,141,0.0,0.0,35,0.00,,,0.00,362.00,VWS V14.01,2013-02-14 20:46:00,
2013-02-14 15:51:00,48.2,21.9,29.73,South,175,0.0,0.0,35,0.00,,,0.00,359.00,VWS V14.01,2013-02-14 20:51:00,
2013-02-14 15:56:00,48.6,21.5,29.73,SSE,151,0.0,0.0,34,0.00,,,0.00,347.00,VWS V14.01,2013-02-14 20:56:00,
2013-02-14 16:02:00,48.6,20.8,29.73,SSE,150,0.0,0.0,33,0.00,,,0.00,327.00,VWS V14.01,2013-02-14 21:02:00,
2013-02-14 16:07:00,48.8,21.7,29.73,SSE,167,0.0,0.0,34,0.00,,,0.00,313.00,VWS V14.01,2013-02-14 21:07:00,
2013-02-14 16:13:00,48.6,22.2,29.73,SE,131,0.0,0.0,35,0.00,,,0.00,297.00,VWS V14.01,2013-02-14 21:13:00,
2013-02-14 16:18:00,48.6,21.5,29.73,SSE,161,0.0,0.0,34,0.00,,,0.00,280.00,VWS V14.01,2013-02-14 21:18:00,
2013-02-14 16:24:00,48.8,22.4,29.73,South,184,0.0,0.0,35,0.00,,,0.00,262.00,VWS V14.01,2013-02-14 21:24:00,
2013-02-14 16:29:00,48.9,22.5,29.73,SSW,195,0.0,0.0,35,0.00,,,0.00,246.00,VWS V14.01,2013-02-14 21:29:00,
2013-02-14 16:34:00,49.1,22.0,29.73,South,184,0.0,0.0,34,0.00,,,0.00,230.00,VWS V14.01,2013-02-14 21:34:00,
2013-02-14 16:39:00,48.8,21.7,29.73,South,174,0.0,0.0,34,0.00,,,0.00,215.00,VWS V14.01,2013-02-14 21:39:00,
2013-02-14 16:45:00,48.5,22.1,29.73,South,179,0.0,0.0,35,0.00,,,0.00,197.00,VWS V14.01,2013-02-14 21:45:00,
2013-02-14 16:51:00,48.2,21.9,29.73,SSW,206,0.0,0.0,35,0.00,,,0.00,179.00,VWS V14.01,2013-02-14 21:51:00,
2013-02-14 16:56:00,48.0,21.7,29.73,SSW,196,0.0,0.0,35,0.00,,,0.00,164.00,VWS V14.01,2013-02-14 21:56:00,
2013-02-14 17:01:00,48.0,22.3,29.73,SSE,155,0.0,0.0,36,0.00,,,0.00,148.00,VWS V14.01,2013-02-14 22:01:00,
2013-02-14 17:06:00,47.7,22.1,29.74,SE,141,0.0,0.0,36,0.00,,,0.00,132.00,VWS V14.01,2013-02-14 22:06:00,
2013-02-14 17:11:00,47.6,22.0,29.74,SE,124,0.0,0.0,36,0.00,,,0.00,118.00,VWS V14.01,2013-02-14 22:11:00,
2013-02-14 17:16:00,47.7,22.7,29.74,SSE,152,0.0,0.0,37,0.00,,,0.00,102.00,VWS V14.01,2013-02-14 22:16:00,
2013-02-14 17:22:00,47.6,22.6,29.74,South,185,0.0,0.0,37,0.00,,,0.00,60.00,VWS V14.01,2013-02-14 22:22:00,
2013-02-14 17:28:00,47.6,23.3,29.74,SE,128,0.0,0.0,38,0.00,,,0.00,37.00,VWS V14.01,2013-02-14 22:28:00,
2013-02-14 17:34:00,47.3,23.0,29.74,SSW,193,0.0,0.0,38,0.00,,,0.00,30.00,VWS V14.01,2013-02-14 22:34:00,
2013-02-14 17:39:00,47.1,23.4,29.75,West,268,0.0,0.0,39,0.00,,,0.00,18.00,VWS V14.01,2013-02-14 22:39:00,
2013-02-14 17:45:00,46.8,23.2,29.75,SSW,193,0.0,0.0,39,0.00,,,0.00,16.00,VWS V14.01,2013-02-14 22:45:00,
2013-02-14 17:50:00,46.5,23.5,29.75,South,184,0.0,0.0,40,0.00,,,0.00,11.00,VWS V14.01,2013-02-14 22:50:00,
2013-02-14 17:55:00,46.1,23.1,29.75,SSE,158,0.0,0.0,40,0.00,,,0.00,5.00,VWS V14.01,2013-02-14 22:55:00,
2013-02-14 18:01:00,45.8,23.5,29.75,SE,144,0.0,0.0,41,0.00,,,0.00,0.00,VWS V14.01,2013-02-14 23:01:00,
2013-02-14 18:06:00,45.4,23.7,29.76,SSE,168,0.0,0.0,42,0.00,,,0.00,0.00,VWS V14.01,2013-02-14 23:06:00,
2013-02-14 18:11:00,45.1,24.0,29.76,SSE,164,0.0,0.0,43,0.00,,,0.00,0.00,VWS V14.01,2013-02-14 23:11:00,
2013-02-14 18:16:00,44.9,24.3,29.76,South,171,0.0,0.0,44,0.00,,,0.00,0.00,VWS V14.01,2013-02-14 23:16:00,
2013-02-14 18:22:00,44.5,24.5,29.76,SSE,162,0.0,0.0,45,0.00,,,0.00,0.00,VWS V14.01,2013-02-14 23:22:00,
2013-02-14 18:27:00,44.2,24.2,29.76,SE,138,0.0,0.0,45,0.00,,,0.00,0.00,VWS V14.01,2013-02-14 23:27:00,
2013-02-14 18:33:00,43.9,24.5,29.76,SE,145,0.0,0.0,46,0.00,,,0.00,0.00,VWS V14.01,2013-02-14 23:33:00,
2013-02-14 18:38:00,43.6,24.7,29.78,South,182,0.0,0.0,47,0.00,,,0.00,0.00,VWS V14.01,2013-02-14 23:38:00,
2013-02-14 18:44:00,43.2,25.4,29.78,South,186,0.0,0.0,49,0.00,,,0.00,0.00,VWS V14.01,2013-02-14 23:44:00,
2013-02-14 18:49:00,43.1,25.3,29.78,SSE,165,0.0,0.0,49,0.00,,,0.00,0.00,VWS V14.01,2013-02-14 23:49:00,
2013-02-14 18:55:00,42.6,25.3,29.78,South,179,0.0,0.0,50,0.00,,,0.00,0.00,VWS V14.01,2013-02-14 23:55:00,
2013-02-14 19:00:00,42.3,25.5,29.78,SSE,167,0.0,0.0,51,0.00,,,0.00,0.00,VWS V14.01,2013-02-15 00:00:00,
2013-02-14 19:06:00,42.1,25.8,29.79,South,174,0.0,0.0,52,0.00,,,0.00,0.00,VWS V14.01,2013-02-15 00:06:00,
2013-02-14 19:11:00,41.8,25.9,29.79,South,184,0.0,0.0,53,0.00,,,0.00,0.00,VWS V14.01,2013-02-15 00:11:00,
2013-02-14 19:17:00,41.3,25.9,29.79,SSE,168,0.0,0.0,54,0.00,,,0.00,0.00,VWS V14.01,2013-02-15 00:17:00,
2013-02-14 19:22:00,41.2,25.8,29.80,SSE,148,0.0,0.0,54,0.00,,,0.00,0.00,VWS V14.01,2013-02-15 00:22:00,
2013-02-14 19:27:00,41.1,25.7,29.80,SW,217,0.0,0.0,54,0.00,,,0.00,0.00,VWS V14.01,2013-02-15 00:27:00,
2013-02-14 19:33:00,40.8,25.9,29.80,South,185,0.0,0.0,55,0.00,,,0.00,0.00,VWS V14.01,2013-02-15 00:33:00,
2013-02-14 19:38:00,40.5,26.0,29.80,SSE,165,0.0,0.0,56,0.00,,,0.00,0.00,VWS V14.01,2013-02-15 00:38:00,
2013-02-14 19:43:00,40.3,25.9,29.80,SSW,205,0.0,0.0,56,0.00,,,0.00,0.00,VWS V14.01,2013-02-15 00:43:00,
2013-02-14 19:49:00,40.3,25.9,29.80,SSW,196,0.0,0.0,56,0.00,,,0.00,0.00,VWS V14.01,2013-02-15 00:49:00,
2013-02-14 19:54:00,40.3,25.9,29.80,South,184,0.0,0.0,56,0.00,,,0.00,0.00,VWS V14.01,2013-02-15 00:54:00,
2013-02-14 19:59:00,40.3,25.9,29.80,South,169,0.0,0.0,56,0.00,,,0.00,0.00,VWS V14.01,2013-02-15 00:59:00,
2013-02-14 20:04:00,40.3,26.3,29.80,South,188,0.0,0.0,57,0.00,,,0.00,0.00,VWS V14.01,2013-02-15 01:04:00,
2013-02-14 20:10:00,40.3,26.3,29.80,SE,145,0.0,0.0,57,0.00,,,0.00,0.00,VWS V14.01,2013-02-15 01:10:00,
2013-02-14 20:16:00,40.3,26.3,29.80,SSE,151,0.0,0.0,57,0.00,,,0.00,0.00,VWS V14.01,2013-02-15 01:16:00,
2013-02-14 20:21:00,40.2,26.2,29.79,SSW,193,0.0,0.0,57,0.00,,,0.00,0.00,VWS V14.01,2013-02-15 01:21:00,
2013-02-14 20:26:00,39.9,26.3,29.79,SSE,158,0.0,0.0,58,0.00,,,0.00,0.00,VWS V14.01,2013-02-15 01:26:00,
2013-02-14 20:31:00,39.8,26.7,29.79,South,186,0.0,0.0,59,0.00,,,0.00,0.00,VWS V14.01,2013-02-15 01:31:00,
2013-02-14 20:36:00,39.5,26.4,29.79,SE,140,0.0,0.0,59,0.00,,,0.00,0.00,VWS V14.01,2013-02-15 01:36:00,
2013-02-14 20:42:00,39.2,26.1,29.79,SSE,157,0.0,0.0,59,0.00,,,0.00,0.00,VWS V14.01,2013-02-15 01:42:00,
2013-02-14 20:48:00,39.1,26.4,29.79,SSE,157,0.0,0.0,60,0.00,,,0.00,0.00,VWS V14.01,2013-02-15 01:48:00,
2013-02-14 20:53:00,38.9,26.2,29.79,SSE,157,0.0,0.0,60,0.00,,,0.00,0.00,VWS V14.01,2013-02-15 01:53:00,
2013-02-14 20:58:00,38.8,26.5,29.79,SSE,157,0.0,0.0,61,0.00,,,0.00,0.00,VWS V14.01,2013-02-15 01:58:00,
2013-02-14 21:04:00,38.8,26.5,29.79,SSE,157,0.0,0.0,61,0.00,,,0.00,0.00,VWS V14.01,2013-02-15 02:04:00,
2013-02-14 21:09:00,38.6,26.3,29.79,SSE,157,0.0,0.0,61,0.00,,,0.00,0.00,VWS V14.01,2013-02-15 02:09:00,
2013-02-14 21:15:00,38.6,26.3,29.79,SSE,157,0.0,0.0,61,0.00,,,0.00,0.00,VWS V14.01,2013-02-15 02:15:00,
2013-02-14 21:20:00,38.5,26.2,29.79,SSE,157,0.0,0.0,61,0.00,,,0.00,0.00,VWS V14.01,2013-02-15 02:20:00,
2013-02-14 21:26:00,38.0,26.1,29.79,SSE,157,0.0,0.0,62,0.00,,,0.00,0.00,VWS V14.01,2013-02-15 02:26:00,
2013-02-14 21:32:00,37.6,26.2,29.79,SSE,157,0.0,0.0,63,0.00,,,0.00,0.00,VWS V14.01,2013-02-15 02:32:00,
2013-02-14 21:37:00,37.5,26.5,29.80,SSE,157,0.0,0.0,64,0.00,,,0.00,0.00,VWS V14.01,2013-02-15 02:37:00,
2013-02-14 21:43:00,37.2,26.5,29.80,SE,133,0.0,0.0,65,0.00,,,0.00,0.00,VWS V14.01,2013-02-15 02:43:00,
2013-02-14 21:48:00,37.0,26.3,29.80,SE,126,0.0,0.0,65,0.00,,,0.00,0.00,VWS V14.01,2013-02-15 02:48:00,
2013-02-14 21:53:00,36.8,26.5,29.80,SE,127,0.0,0.0,66,0.00,,,0.00,0.00,VWS V14.01,2013-02-15 02:53:00,
2013-02-14 21:59:00,36.6,26.7,29.80,SE,144,0.0,0.0,67,0.00,,,0.00,0.00,VWS V14.01,2013-02-15 02:59:00,
2013-02-14 22:04:00,36.6,26.7,29.80,SE,140,0.0,0.0,67,0.00,,,0.00,0.00,VWS V14.01,2013-02-15 03:04:00,
2013-02-14 22:10:00,36.6,26.7,29.80,SSE,160,0.0,0.0,67,0.00,,,0.00,0.00,VWS V14.01,2013-02-15 03:10:00,
2013-02-14 22:15:00,36.8,26.9,29.80,SSE,160,0.0,0.0,67,0.00,,,0.00,0.00,VWS V14.01,2013-02-15 03:15:00,
2013-02-14 22:20:00,36.8,26.9,29.80,SSE,158,0.0,0.0,67,0.00,,,0.00,0.00,VWS V14.01,2013-02-15 03:20:00,
2013-02-14 22:25:00,36.9,27.0,29.80,SSE,152,0.0,0.0,67,0.00,,,0.00,0.00,VWS V14.01,2013-02-15 03:25:00,
2013-02-14 22:31:00,36.9,27.0,29.80,SSE,158,0.0,0.0,67,0.00,,,0.00,0.00,VWS V14.01,2013-02-15 03:31:00,
2013-02-14 22:36:00,37.0,26.7,29.81,SSE,155,0.0,0.0,66,0.00,,,0.00,0.00,VWS V14.01,2013-02-15 03:36:00,
2013-02-14 22:42:00,37.0,26.7,29.81,SSE,165,0.0,0.0,66,0.00,,,0.00,0.00,VWS V14.01,2013-02-15 03:42:00,
2013-02-14 22:48:00,37.0,26.7,29.81,South,172,0.0,0.0,66,0.00,,,0.00,0.00,VWS V14.01,2013-02-15 03:48:00,
2013-02-14 22:53:00,36.9,27.0,29.81,SSE,155,0.0,0.0,67,0.00,,,0.00,0.00,VWS V14.01,2013-02-15 03:53:00,
2013-02-14 22:59:00,36.6,26.7,29.81,SSE,155,0.0,0.0,67,0.00,,,0.00,0.00,VWS V14.01,2013-02-15 03:59:00,
2013-02-14 23:04:00,36.5,26.6,29.81,SSE,155,0.0,0.0,67,0.00,,,0.00,0.00,VWS V14.01,2013-02-15 04:04:00,
2013-02-14 23:10:00,36.3,26.8,29.81,South,182,0.0,0.0,68,0.00,,,0.00,0.00,VWS V14.01,2013-02-15 04:10:00,
2013-02-14 23:15:00,36.0,26.5,29.81,South,182,0.0,0.0,68,0.00,,,0.00,0.00,VWS V14.01,2013-02-15 04:15:00,
2013-02-14 23:20:00,36.0,26.5,29.81,South,182,0.0,0.0,68,0.00,,,0.00,0.00,VWS V14.01,2013-02-15 04:20:00,
2013-02-14 23:26:00,35.9,26.4,29.81,South,182,0.0,0.0,68,0.00,,,0.00,0.00,VWS V14.01,2013-02-15 04:26:00,
2013-02-14 23:32:00,35.8,26.6,29.81,South,182,0.0,0.0,69,0.00,,,0.00,0.00,VWS V14.01,2013-02-15 04:32:00,
2013-02-14 23:37:00,35.5,26.4,29.81,South,182,0.0,0.0,69,0.00,,,0.00,0.00,VWS V14.01,2013-02-15 04:37:00,
2013-02-14 23:43:00,35.2,26.1,29.81,South,182,0.0,0.0,69,0.00,,,0.00,0.00,VWS V14.01,2013-02-15 04:43:00,
2013-02-14 23:48:00,34.9,26.1,29.81,South,182,0.0,0.0,70,0.00,,,0.00,0.00,VWS V14.01,2013-02-15 04:48:00,
2013-02-14 23:53:00,34.6,26.2,29.81,South,182,0.0,0.0,71,0.00,,,0.00,0.00,VWS V14.01,2013-02-15 04:53:00,
2013-02-14 23:59:00,34.3,26.2,29.81,South,182,0.0,0.0,72,0.00,,,0.00,0.00,VWS V14.01,2013-02-15 04:59:00,